Wetterdaten: Freitag, 17.03.2023
Datum Zeit Temp. Aussen Temp. o. S. Temp +5cm Feuchte Auss Luftdruck Regen Sonnenschein Regendauer Solar Windben Empfang
17.03.2023 00:00 8,7 C 7,8 C 4,4 C 71 % 1009,8 hPa 0,0 l/m 0 min 0 min 0 W/m 19,3 km/h (3 Bft) 100,00 %
17.03.2023 00:02 8,7 C 7,8 C 4,4 C 71 % 1009,8 hPa 0,0 l/m 0 min 0 min 0 W/m 29,0 km/h (5 Bft) 97,50 %
17.03.2023 00:04 8,7 C 7,8 C 4,4 C 71 % 1009,9 hPa 0,0 l/m 0 min 0 min 0 W/m 25,7 km/h (4 Bft) 100,00 %
17.03.2023 00:07 8,7 C 7,8 C 3,9 C 71 % 1009,8 hPa 0,0 l/m 0 min 0 min 0 W/m 22,5 km/h (4 Bft) 98,59 %
17.03.2023 00:10 8,7 C 7,8 C 4,4 C 71 % 1009,9 hPa 0,0 l/m 0 min 0 min 0 W/m 29,0 km/h (5 Bft) 100,00 %
17.03.2023 00:12 8,7 C 7,8 C 4,4 C 71 % 1009,8 hPa 0,0 l/m 0 min 0 min 0 W/m 29,0 km/h (5 Bft) 98,11 %
17.03.2023 00:14 8,7 C 7,8 C 4,4 C 71 % 1009,8 hPa 0,0 l/m 0 min 0 min 0 W/m 22,5 km/h (4 Bft) 100,00 %
17.03.2023 00:16 8,7 C 7,8 C 3,9 C 71 % 1009,7 hPa 0,0 l/m 0 min 0 min 0 W/m 22,5 km/h (4 Bft) 100,00 %
17.03.2023 00:18 8,7 C 7,8 C 3,9 C 71 % 1009,6 hPa 0,0 l/m 0 min 0 min 0 W/m 19,3 km/h (3 Bft) 100,00 %
17.03.2023 00:20 8,7 C 7,8 C 4,4 C 70 % 1009,7 hPa 0,0 l/m 0 min 0 min 0 W/m 22,5 km/h (4 Bft) 100,00 %
17.03.2023 00:22 8,7 C 7,8 C 3,9 C 70 % 1009,6 hPa 0,0 l/m 0 min 0 min 0 W/m 16,1 km/h (3 Bft) 100,00 %
17.03.2023 00:24 8,7 C 7,8 C 3,9 C 70 % 1009,7 hPa 0,0 l/m 0 min 0 min 0 W/m 29,0 km/h (5 Bft) 100,00 %
17.03.2023 00:26 8,7 C 7,8 C 4,4 C 70 % 1009,7 hPa 0,0 l/m 0 min 0 min 0 W/m 22,5 km/h (4 Bft) 97,87 %
17.03.2023 00:28 8,7 C 7,8 C 3,9 C 70 % 1009,6 hPa 0,0 l/m 0 min 0 min 0 W/m 29,0 km/h (5 Bft) 95,74 %
17.03.2023 00:30 8,7 C 7,8 C 3,9 C 70 % 1009,6 hPa 0,0 l/m 0 min 0 min 0 W/m 19,3 km/h (3 Bft) 100,00 %
17.03.2023 00:32 8,7 C 7,8 C 3,9 C 70 % 1009,6 hPa 0,0 l/m 0 min 0 min 0 W/m 25,7 km/h (4 Bft) 95,65 %
17.03.2023 00:34 8,7 C 7,8 C 4,4 C 70 % 1009,7 hPa 0,0 l/m 0 min 0 min 0 W/m 25,7 km/h (4 Bft) 100,00 %
17.03.2023 00:36 8,7 C 7,8 C 4,4 C 70 % 1009,6 hPa 0,0 l/m 0 min 0 min 0 W/m 16,1 km/h (3 Bft) 100,00 %
17.03.2023 00:38 8,7 C 7,8 C 4,4 C 70 % 1009,9 hPa 0,0 l/m 0 min 0 min 0 W/m 22,5 km/h (4 Bft) 100,00 %
17.03.2023 00:40 8,7 C 7,8 C 4,4 C 70 % 1009,9 hPa 0,0 l/m 0 min 0 min 0 W/m 22,5 km/h (4 Bft) 97,87 %
17.03.2023 00:42 8,7 C 7,8 C 3,9 C 70 % 1010,0 hPa 0,0 l/m 0 min 0 min 0 W/m 12,9 km/h (3 Bft) 100,00 %
17.03.2023 00:44 8,7 C 7,8 C 4,4 C 70 % 1010,0 hPa 0,0 l/m 0 min 0 min 0 W/m 29,0 km/h (5 Bft) 97,87 %
17.03.2023 00:46 8,7 C 7,8 C 4,4 C 70 % 1010,0 hPa 0,0 l/m 0 min 0 min 0 W/m 16,1 km/h (3 Bft) 100,00 %
17.03.2023 00:48 8,7 C 7,8 C 3,9 C 70 % 1010,1 hPa 0,0 l/m 0 min 0 min 0 W/m 19,3 km/h (3 Bft) 100,00 %
17.03.2023 00:50 8,7 C 7,8 C 3,9 C 70 % 1010,2 hPa 0,0 l/m 0 min 0 min 0 W/m 19,3 km/h (3 Bft) 100,00 %
17.03.2023 00:52 8,7 C 7,8 C 3,9 C 70 % 1010,2 hPa 0,0 l/m 0 min 0 min 0 W/m 12,9 km/h (3 Bft) 100,00 %
17.03.2023 00:54 8,7 C 7,8 C 3,9 C 70 % 1010,3 hPa 0,0 l/m 0 min 0 min 0 W/m 12,9 km/h (3 Bft) 100,00 %
17.03.2023 00:56 8,7 C 7,8 C 3,9 C 70 % 1010,4 hPa 0,0 l/m 0 min 0 min 0 W/m 25,7 km/h (4 Bft) 97,87 %
17.03.2023 00:58 8,7 C 7,8 C 3,9 C 70 % 1010,4 hPa 0,0 l/m 0 min 0 min 0 W/m 19,3 km/h (3 Bft) 100,00 %
17.03.2023 01:00 8,7 C 7,8 C 3,9 C 70 % 1010,4 hPa 0,0 l/m 0 min 0 min 0 W/m 16,1 km/h (3 Bft) 100,00 %
17.03.2023 01:02 8,7 C 7,8 C 3,9 C 70 % 1010,4 hPa 0,0 l/m 0 min 0 min 0 W/m 16,1 km/h (3 Bft) 100,00 %
17.03.2023 01:04 8,7 C 7,8 C 3,9 C 70 % 1010,5 hPa 0,0 l/m 0 min 0 min 0 W/m 16,1 km/h (3 Bft) 97,87 %
17.03.2023 01:06 8,7 C 7,8 C 3,9 C 70 % 1010,5 hPa 0,0 l/m 0 min 0 min 0 W/m 22,5 km/h (4 Bft) 97,87 %
17.03.2023 01:08 8,7 C 7,8 C 3,9 C 70 % 1010,5 hPa 0,0 l/m 0 min 0 min 0 W/m 16,1 km/h (3 Bft) 97,87 %
17.03.2023 01:10 8,6 C 7,8 C 3,9 C 70 % 1010,4 hPa 0,0 l/m 0 min 0 min 0 W/m 16,1 km/h (3 Bft) 97,87 %
17.03.2023 01:12 8,6 C 7,8 C 3,9 C 70 % 1010,3 hPa 0,0 l/m 0 min 0 min 0 W/m 16,1 km/h (3 Bft) 97,83 %
17.03.2023 01:14 8,6 C 7,8 C 3,9 C 70 % 1010,3 hPa 0,0 l/m 0 min 0 min 0 W/m 19,3 km/h (3 Bft) 93,62 %
17.03.2023 01:16 8,6 C 7,8 C 3,9 C 70 % 1010,3 hPa 0,0 l/m 0 min 0 min 0 W/m 16,1 km/h (3 Bft) 93,62 %
17.03.2023 01:18 8,6 C 7,8 C 3,9 C 70 % 1010,3 hPa 0,0 l/m 0 min 0 min 0 W/m 19,3 km/h (3 Bft) 95,74 %
17.03.2023 01:20 8,6 C 7,8 C 3,9 C 71 % 1010,3 hPa 0,0 l/m 0 min 0 min 0 W/m 19,3 km/h (3 Bft) 95,74 %
17.03.2023 01:22 8,5 C 7,8 C 3,9 C 71 % 1010,3 hPa 0,0 l/m 0 min 0 min 0 W/m 19,3 km/h (3 Bft) 93,62 %
17.03.2023 01:24 8,5 C 7,8 C 3,9 C 71 % 1010,2 hPa 0,0 l/m 0 min 0 min 0 W/m 25,7 km/h (4 Bft) 93,62 %
17.03.2023 01:26 8,4 C 7,8 C 3,9 C 71 % 1010,2 hPa 0,0 l/m 0 min 0 min 0 W/m 16,1 km/h (3 Bft) 93,48 %
17.03.2023 01:28 8,4 C 7,2 C 3,9 C 71 % 1010,2 hPa 0,0 l/m 0 min 0 min 0 W/m 16,1 km/h (3 Bft) 95,74 %
17.03.2023 01:30 8,4 C 7,2 C 3,9 C 71 % 1010,2 hPa 0,0 l/m 0 min 0 min 0 W/m 16,1 km/h (3 Bft) 91,49 %
17.03.2023 01:32 8,4 C 7,2 C 3,9 C 71 % 1010,2 hPa 0,0 l/m 0 min 0 min 0 W/m 19,3 km/h (3 Bft) 95,35 %
17.03.2023 01:34 8,3 C 7,2 C 3,3 C 71 % 1010,1 hPa 0,0 l/m 0 min 0 min 0 W/m 19,3 km/h (3 Bft) 92,16 %
17.03.2023 01:36 8,3 C 7,2 C 3,3 C 72 % 1010,2 hPa 0,0 l/m 0 min 0 min 0 W/m 19,3 km/h (3 Bft) 95,74 %
17.03.2023 01:38 8,3 C 7,2 C 3,3 C 72 % 1010,2 hPa 0,0 l/m 0 min 0 min 0 W/m 16,1 km/h (3 Bft) 95,65 %
17.03.2023 01:40 8,3 C 7,2 C 3,3 C 72 % 1010,2 hPa 0,0 l/m 0 min 0 min 0 W/m 16,1 km/h (3 Bft) 91,67 %
17.03.2023 01:42 8,2 C 7,2 C 3,3 C 72 % 1010,2 hPa 0,0 l/m 0 min 0 min 0 W/m 16,1 km/h (3 Bft) 97,83 %
17.03.2023 01:44 8,2 C 7,2 C 3,3 C 72 % 1010,0 hPa 0,0 l/m 0 min 0 min 0 W/m 16,1 km/h (3 Bft) 95,74 %
17.03.2023 01:46 8,2 C 7,2 C 3,3 C 72 % 1010,0 hPa 0,0 l/m 0 min 0 min 0 W/m 16,1 km/h (3 Bft) 94,34 %
17.03.2023 01:48 8,2 C 7,2 C 3,3 C 72 % 1010,0 hPa 0,0 l/m 0 min 0 min 0 W/m 19,3 km/h (3 Bft) 95,74 %
17.03.2023 01:50 8,2 C 7,2 C 3,3 C 72 % 1010,0 hPa 0,0 l/m 0 min 0 min 0 W/m 22,5 km/h (4 Bft) 93,62 %
17.03.2023 01:52 8,2 C 7,2 C 3,3 C 72 % 1009,9 hPa 0,0 l/m 0 min 0 min 0 W/m 25,7 km/h (4 Bft) 95,74 %
17.03.2023 01:54 8,2 C 7,2 C 3,3 C 72 % 1009,9 hPa 0,0 l/m 0 min 0 min 0 W/m 29,0 km/h (5 Bft) 93,62 %
17.03.2023 01:56 8,2 C 7,2 C 3,3 C 72 % 1009,8 hPa 0,0 l/m 0 min 0 min 0 W/m 16,1 km/h (3 Bft) 54,35 %
17.03.2023 01:58 8,2 C 7,2 C 3,3 C 72 % 1009,8 hPa 0,0 l/m 0 min 0 min 0 W/m 22,5 km/h (4 Bft) 95,35 %
17.03.2023 02:00 8,2 C 7,2 C 3,3 C 72 % 1009,8 hPa 0,0 l/m 0 min 0 min 0 W/m 22,5 km/h (4 Bft) 93,62 %
17.03.2023 02:02 8,1 C 7,2 C 3,3 C 72 % 1009,8 hPa 0,0 l/m 0 min 0 min 0 W/m 19,3 km/h (3 Bft) 95,74 %
17.03.2023 02:04 8,2 C 7,2 C 3,9 C 72 % 1009,7 hPa 0,0 l/m 0 min 0 min 0 W/m 22,5 km/h (4 Bft) 93,62 %
17.03.2023 02:06 8,2 C 7,2 C 3,3 C 72 % 1009,6 hPa 0,0 l/m 0 min 0 min 0 W/m 16,1 km/h (3 Bft) 93,10 %
17.03.2023 02:08 8,2 C 7,2 C 3,3 C 72 % 1009,6 hPa 0,0 l/m 0 min 0 min 0 W/m 22,5 km/h (4 Bft) 97,14 %
17.03.2023 02:10 8,2 C 7,2 C 3,9 C 72 % 1009,5 hPa 0,0 l/m 0 min 0 min 0 W/m 25,7 km/h (4 Bft) 95,74 %
17.03.2023 02:12 8,2 C 7,2 C 3,9 C 72 % 1009,5 hPa 0,0 l/m 0 min 0 min 0 W/m 29,0 km/h (5 Bft) 97,87 %
17.03.2023 02:14 8,2 C 7,2 C 3,9 C 72 % 1009,4 hPa 0,0 l/m 0 min 0 min 0 W/m 19,3 km/h (3 Bft) 93,62 %
17.03.2023 02:16 8,2 C 7,2 C 3,9 C 72 % 1009,4 hPa 0,0 l/m 0 min 0 min 0 W/m 25,7 km/h (4 Bft) 97,62 %
17.03.2023 02:18 8,2 C 7,8 C 3,9 C 72 % 1009,3 hPa 0,0 l/m 0 min 0 min 0 W/m 25,7 km/h (4 Bft) 95,74 %
17.03.2023 02:20 8,2 C 7,8 C 3,9 C 72 % 1009,3 hPa 0,0 l/m 0 min 0 min 0 W/m 38,6 km/h (5 Bft) 97,87 %
17.03.2023 02:22 8,3 C 7,8 C 3,9 C 72 % 1009,3 hPa 0,0 l/m 0 min 0 min 0 W/m 22,5 km/h (4 Bft) 95,65 %
17.03.2023 02:24 8,3 C 7,8 C 3,9 C 72 % 1009,3 hPa 0,0 l/m 0 min 0 min 0 W/m 29,0 km/h (5 Bft) 97,87 %
17.03.2023 02:26 8,3 C 7,8 C 3,9 C 72 % 1009,1 hPa 0,0 l/m 0 min 0 min 0 W/m 19,3 km/h (3 Bft) 97,92 %
17.03.2023 02:28 8,3 C 7,8 C 3,9 C 72 % 1009,0 hPa 0,0 l/m 0 min 0 min 0 W/m 25,7 km/h (4 Bft) 100,00 %
17.03.2023 02:30 8,3 C 7,8 C 3,9 C 72 % 1009,0 hPa 0,0 l/m 0 min 0 min 0 W/m 22,5 km/h (4 Bft) 100,00 %
17.03.2023 02:32 8,3 C 7,2 C 3,9 C 72 % 1009,0 hPa 0,0 l/m 0 min 0 min 0 W/m 22,5 km/h (4 Bft) 100,00 %
17.03.2023 02:34 8,3 C 7,2 C 3,9 C 72 % 1009,0 hPa 0,0 l/m 0 min 0 min 0 W/m 29,0 km/h (5 Bft) 100,00 %
17.03.2023 02:36 8,3 C 7,2 C 3,9 C 72 % 1009,0 hPa 0,0 l/m 0 min 0 min 0 W/m 22,5 km/h (4 Bft) 100,00 %
17.03.2023 02:38 8,3 C 7,2 C 3,9 C 72 % 1009,0 hPa 0,0 l/m 0 min 0 min 0 W/m 16,1 km/h (3 Bft) 100,00 %
17.03.2023 02:40 8,3 C 7,8 C 3,9 C 72 % 1009,0 hPa 0,0 l/m 0 min 0 min 0 W/m 19,3 km/h (3 Bft) 95,74 %
17.03.2023 02:42 8,3 C 7,2 C 3,9 C 72 % 1009,1 hPa 0,0 l/m 0 min 0 min 0 W/m 16,1 km/h (3 Bft) 95,74 %
17.03.2023 02:44 8,3 C 7,2 C 3,9 C 72 % 1009,2 hPa 0,0 l/m 0 min 0 min 0 W/m 19,3 km/h (3 Bft) 100,00 %
17.03.2023 02:46 8,3 C 7,2 C 3,9 C 72 % 1009,2 hPa 0,0 l/m 0 min 0 min 0 W/m 19,3 km/h (3 Bft) 100,00 %
17.03.2023 02:48 8,3 C 7,2 C 3,3 C 72 % 1009,2 hPa 0,0 l/m 0 min 0 min 0 W/m 16,1 km/h (3 Bft) 100,00 %
17.03.2023 02:50 8,3 C 7,2 C 3,3 C 72 % 1009,1 hPa 0,0 l/m 0 min 0 min 0 W/m 19,3 km/h (3 Bft) 100,00 %
17.03.2023 02:52 8,3 C 7,2 C 3,9 C 72 % 1009,2 hPa 0,0 l/m 0 min 0 min 0 W/m 16,1 km/h (3 Bft) 100,00 %
17.03.2023 02:54 8,3 C 7,2 C 3,9 C 72 % 1009,2 hPa 0,0 l/m 0 min 0 min 0 W/m 16,1 km/h (3 Bft) 100,00 %
17.03.2023 02:56 8,3 C 7,2 C 3,9 C 72 % 1009,2 hPa 0,0 l/m 0 min 0 min 0 W/m 19,3 km/h (3 Bft) 100,00 %
17.03.2023 02:58 8,3 C 7,2 C 3,9 C 72 % 1009,2 hPa 0,0 l/m 0 min 0 min 0 W/m 16,1 km/h (3 Bft) 100,00 %
17.03.2023 03:00 8,3 C 7,2 C 3,3 C 72 % 1009,1 hPa 0,0 l/m 0 min 0 min 0 W/m 16,1 km/h (3 Bft) 100,00 %
17.03.2023 03:02 8,2 C 7,2 C 3,3 C 73 % 1009,2 hPa 0,0 l/m 0 min 0 min 0 W/m 16,1 km/h (3 Bft) 97,87 %
17.03.2023 03:04 8,2 C 7,2 C 3,3 C 73 % 1009,1 hPa 0,0 l/m 0 min 0 min 0 W/m 16,1 km/h (3 Bft) 97,87 %
17.03.2023 03:06 8,2 C 7,2 C 3,3 C 73 % 1009,1 hPa 0,0 l/m 0 min 0 min 0 W/m 19,3 km/h (3 Bft) 95,74 %
17.03.2023 03:08 8,2 C 7,2 C 3,3 C 73 % 1009,2 hPa 0,0 l/m 0 min 0 min 0 W/m 19,3 km/h (3 Bft) 97,87 %
17.03.2023 03:10 8,2 C 7,2 C 3,3 C 73 % 1009,1 hPa 0,0 l/m 0 min 0 min 0 W/m 12,9 km/h (3 Bft) 97,87 %
17.03.2023 03:12 8,2 C 7,2 C 3,3 C 73 % 1009,2 hPa 0,0 l/m 0 min 0 min 0 W/m 12,9 km/h (3 Bft) 93,62 %
17.03.2023 03:14 8,1 C 7,2 C 3,3 C 73 % 1009,1 hPa 0,0 l/m 0 min 0 min 0 W/m 16,1 km/h (3 Bft) 97,83 %
17.03.2023 03:16 8,1 C 7,2 C 3,3 C 73 % 1009,1 hPa 0,0 l/m 0 min 0 min 0 W/m 22,5 km/h (4 Bft) 97,87 %
17.03.2023 03:18 8,1 C 7,2 C 3,3 C 73 % 1009,1 hPa 0,0 l/m 0 min 0 min 0 W/m 16,1 km/h (3 Bft) 97,67 %
17.03.2023 03:20 8,1 C 7,2 C 3,3 C 73 % 1009,1 hPa 0,0 l/m 0 min 0 min 0 W/m 16,1 km/h (3 Bft) 98,04 %
17.03.2023 03:22 8,1 C 7,2 C 3,3 C 73 % 1009,0 hPa 0,0 l/m 0 min 0 min 0 W/m 12,9 km/h (3 Bft) 97,87 %
17.03.2023 03:24 8,1 C 7,2 C 3,3 C 74 % 1009,1 hPa 0,0 l/m 0 min 0 min 0 W/m 12,9 km/h (3 Bft) 97,87 %
17.03.2023 03:26 8,0 C 6,7 C 3,3 C 74 % 1009,1 hPa 0,0 l/m 0 min 0 min 0 W/m 12,9 km/h (3 Bft) 97,87 %
17.03.2023 03:28 7,9 C 6,7 C 3,3 C 74 % 1009,1 hPa 0,0 l/m 0 min 0 min 0 W/m 12,9 km/h (3 Bft) 97,83 %
17.03.2023 03:30 7,9 C 6,7 C 3,3 C 74 % 1009,0 hPa 0,0 l/m 0 min 0 min 0 W/m 16,1 km/h (3 Bft) 97,87 %
17.03.2023 03:32 7,9 C 6,7 C 3,3 C 74 % 1009,0 hPa 0,0 l/m 0 min 0 min 0 W/m 16,1 km/h (3 Bft) 97,87 %
17.03.2023 03:34 7,9 C 6,7 C 3,3 C 74 % 1009,1 hPa 0,0 l/m 0 min 0 min 0 W/m 25,7 km/h (4 Bft) 100,00 %
17.03.2023 03:36 7,8 C 6,7 C 3,3 C 74 % 1009,0 hPa 0,0 l/m 0 min 0 min 0 W/m 12,9 km/h (3 Bft) 100,00 %
17.03.2023 03:38 7,8 C 6,7 C 3,3 C 74 % 1009,1 hPa 0,0 l/m 0 min 0 min 0 W/m 12,9 km/h (3 Bft) 100,00 %
17.03.2023 03:40 7,8 C 6,7 C 3,3 C 74 % 1009,0 hPa 0,0 l/m 0 min 0 min 0 W/m 16,1 km/h (3 Bft) 100,00 %
17.03.2023 03:42 7,8 C 6,7 C 3,3 C 74 % 1009,0 hPa 0,0 l/m 0 min 0 min 0 W/m 12,9 km/h (3 Bft) 100,00 %
17.03.2023 03:44 7,7 C 6,7 C 3,3 C 74 % 1009,0 hPa 0,0 l/m 0 min 0 min 0 W/m 16,1 km/h (3 Bft) 97,87 %
17.03.2023 03:46 7,7 C 6,7 C 2,8 C 74 % 1009,0 hPa 0,0 l/m 0 min 0 min 0 W/m 12,9 km/h (3 Bft) 97,87 %
17.03.2023 03:48 7,7 C 6,7 C 3,3 C 74 % 1009,0 hPa 0,0 l/m 0 min 0 min 0 W/m 19,3 km/h (3 Bft) 100,00 %
17.03.2023 03:50 7,7 C 6,7 C 3,3 C 74 % 1009,0 hPa 0,0 l/m 0 min 0 min 0 W/m 19,3 km/h (3 Bft) 100,00 %
17.03.2023 03:52 7,7 C 6,7 C 3,3 C 74 % 1009,0 hPa 0,0 l/m 0 min 0 min 0 W/m 19,3 km/h (3 Bft) 100,00 %
17.03.2023 03:54 7,7 C 6,7 C 3,3 C 74 % 1009,0 hPa 0,0 l/m 0 min 0 min 0 W/m 19,3 km/h (3 Bft) 100,00 %
17.03.2023 03:56 7,7 C 6,7 C 3,3 C 74 % 1009,0 hPa 0,0 l/m 0 min 0 min 0 W/m 16,1 km/h (3 Bft) 97,87 %
17.03.2023 03:58 7,7 C 6,7 C 3,3 C 74 % 1009,0 hPa 0,0 l/m 0 min 0 min 0 W/m 16,1 km/h (3 Bft) 97,87 %
17.03.2023 04:00 7,7 C 6,7 C 2,8 C 74 % 1008,9 hPa 0,0 l/m 0 min 0 min 0 W/m 16,1 km/h (3 Bft) 100,00 %
17.03.2023 04:02 7,7 C 6,7 C 2,8 C 74 % 1008,9 hPa 0,0 l/m 0 min 0 min 0 W/m 16,1 km/h (3 Bft) 100,00 %
17.03.2023 04:04 7,7 C 6,7 C 2,8 C 74 % 1008,9 hPa 0,0 l/m 0 min 0 min 0 W/m 16,1 km/h (3 Bft) 95,74 %
17.03.2023 04:06 7,6 C 6,7 C 2,8 C 74 % 1008,9 hPa 0,0 l/m 0 min 0 min 0 W/m 16,1 km/h (3 Bft) 100,00 %
17.03.2023 04:08 7,6 C 6,7 C 2,8 C 74 % 1008,9 hPa 0,0 l/m 0 min 0 min 0 W/m 16,1 km/h (3 Bft) 95,65 %
17.03.2023 04:10 7,6 C 6,7 C 2,8 C 74 % 1008,9 hPa 0,0 l/m 0 min 0 min 0 W/m 19,3 km/h (3 Bft) 100,00 %
17.03.2023 04:12 7,6 C 6,7 C 2,8 C 74 % 1008,9 hPa 0,0 l/m 0 min 0 min 0 W/m 16,1 km/h (3 Bft) 100,00 %
17.03.2023 04:14 7,6 C 6,7 C 2,8 C 74 % 1009,0 hPa 0,0 l/m 0 min 0 min 0 W/m 16,1 km/h (3 Bft) 98,08 %
17.03.2023 04:16 7,6 C 6,7 C 2,8 C 74 % 1009,0 hPa 0,0 l/m 0 min 0 min 0 W/m 16,1 km/h (3 Bft) 93,62 %
17.03.2023 04:18 7,6 C 6,7 C 2,8 C 74 % 1009,0 hPa 0,0 l/m 0 min 0 min 0 W/m 16,1 km/h (3 Bft) 95,74 %
17.03.2023 04:20 7,6 C 6,7 C 2,8 C 74 % 1009,0 hPa 0,0 l/m 0 min 0 min 0 W/m 19,3 km/h (3 Bft) 95,65 %
17.03.2023 04:22 7,6 C 6,7 C 2,8 C 74 % 1009,0 hPa 0,0 l/m 0 min 0 min 0 W/m 16,1 km/h (3 Bft) 95,74 %
17.03.2023 04:24 7,6 C 6,7 C 2,8 C 74 % 1009,0 hPa 0,0 l/m 0 min 0 min 0 W/m 16,1 km/h (3 Bft) 95,74 %
17.03.2023 04:26 7,6 C 6,7 C 2,8 C 74 % 1008,9 hPa 0,0 l/m 0 min 0 min 0 W/m 16,1 km/h (3 Bft) 93,62 %
17.03.2023 04:28 7,5 C 6,7 C 2,8 C 75 % 1008,9 hPa 0,0 l/m 0 min 0 min 0 W/m 12,9 km/h (3 Bft) 95,74 %
17.03.2023 04:30 7,5 C 6,7 C 2,8 C 75 % 1008,9 hPa 0,0 l/m 0 min 0 min 0 W/m 19,3 km/h (3 Bft) 95,92 %
17.03.2023 04:32 7,5 C 6,7 C 2,8 C 75 % 1008,8 hPa 0,0 l/m 0 min 0 min 0 W/m 12,9 km/h (3 Bft) 93,62 %
17.03.2023 04:34 7,5 C 6,7 C 2,8 C 75 % 1008,8 hPa 0,0 l/m 0 min 0 min 0 W/m 12,9 km/h (3 Bft) 95,65 %
17.03.2023 04:36 7,4 C 6,7 C 2,8 C 75 % 1008,7 hPa 0,0 l/m 0 min 0 min 0 W/m 9,7 km/h (2 Bft) 95,74 %
17.03.2023 04:38 7,4 C 6,7 C 2,8 C 75 % 1008,7 hPa 0,0 l/m 0 min 0 min 0 W/m 12,9 km/h (3 Bft) 95,74 %
17.03.2023 04:40 7,4 C 6,7 C 2,8 C 75 % 1008,7 hPa 0,0 l/m 0 min 0 min 0 W/m 19,3 km/h (3 Bft) 95,74 %
17.03.2023 04:42 7,4 C 6,7 C 2,8 C 75 % 1008,8 hPa 0,0 l/m 0 min 0 min 0 W/m 12,9 km/h (3 Bft) 95,24 %
17.03.2023 04:44 7,4 C 6,7 C 2,8 C 75 % 1008,8 hPa 0,0 l/m 0 min 0 min 0 W/m 12,9 km/h (3 Bft) 93,62 %
17.03.2023 04:46 7,4 C 6,7 C 2,8 C 75 % 1008,8 hPa 0,0 l/m 0 min 0 min 0 W/m 22,5 km/h (4 Bft) 95,74 %
17.03.2023 04:48 7,4 C 6,7 C 2,8 C 75 % 1008,8 hPa 0,0 l/m 0 min 0 min 0 W/m 16,1 km/h (3 Bft) 91,49 %
17.03.2023 04:50 7,4 C 6,7 C 2,8 C 75 % 1008,9 hPa 0,0 l/m 0 min 0 min 0 W/m 16,1 km/h (3 Bft) 95,74 %
17.03.2023 04:52 7,4 C 6,7 C 2,8 C 75 % 1009,0 hPa 0,0 l/m 0 min 0 min 0 W/m 19,3 km/h (3 Bft) 95,65 %
17.03.2023 04:54 7,4 C 6,7 C 2,8 C 75 % 1009,0 hPa 0,0 l/m 0 min 0 min 0 W/m 19,3 km/h (3 Bft) 93,62 %
17.03.2023 04:56 7,4 C 6,7 C 2,8 C 75 % 1009,0 hPa 0,0 l/m 0 min 0 min 0 W/m 12,9 km/h (3 Bft) 95,74 %
17.03.2023 04:58 7,4 C 6,7 C 2,8 C 75 % 1009,0 hPa 0,0 l/m 0 min 0 min 0 W/m 22,5 km/h (4 Bft) 91,49 %
17.03.2023 05:00 7,4 C 6,7 C 2,8 C 75 % 1009,0 hPa 0,0 l/m 0 min 0 min 0 W/m 12,9 km/h (3 Bft) 95,74 %
17.03.2023 05:02 7,4 C 6,7 C 2,8 C 75 % 1009,0 hPa 0,0 l/m 0 min 0 min 0 W/m 12,9 km/h (3 Bft) 93,62 %
17.03.2023 05:04 7,3 C 6,7 C 2,8 C 76 % 1009,1 hPa 0,0 l/m 0 min 0 min 0 W/m 12,9 km/h (3 Bft) 95,74 %
17.03.2023 05:06 7,3 C 6,7 C 2,8 C 76 % 1009,1 hPa 0,0 l/m 0 min 0 min 0 W/m 19,3 km/h (3 Bft) 98,28 %
17.03.2023 05:08 7,3 C 6,7 C 2,8 C 76 % 1009,0 hPa 0,0 l/m 0 min 0 min 0 W/m 19,3 km/h (3 Bft) 94,29 %
17.03.2023 05:10 7,3 C 6,7 C 2,8 C 76 % 1009,1 hPa 0,0 l/m 0 min 0 min 0 W/m 16,1 km/h (3 Bft) 97,87 %
17.03.2023 05:12 7,3 C 6,7 C 2,8 C 76 % 1009,1 hPa 0,0 l/m 0 min 0 min 0 W/m 12,9 km/h (3 Bft) 95,74 %
17.03.2023 05:14 7,3 C 6,7 C 2,8 C 76 % 1009,1 hPa 0,0 l/m 0 min 0 min 0 W/m 19,3 km/h (3 Bft) 95,74 %
17.03.2023 05:16 7,3 C 6,7 C 2,8 C 76 % 1009,1 hPa 0,0 l/m 0 min 0 min 0 W/m 16,1 km/h (3 Bft) 97,87 %
17.03.2023 05:18 7,3 C 6,7 C 2,8 C 76 % 1009,0 hPa 0,0 l/m 0 min 0 min 0 W/m 12,9 km/h (3 Bft) 95,65 %
17.03.2023 05:20 7,3 C 6,7 C 2,8 C 76 % 1009,0 hPa 0,0 l/m 0 min 0 min 0 W/m 12,9 km/h (3 Bft) 97,87 %
17.03.2023 05:22 7,3 C 6,7 C 2,8 C 76 % 1009,1 hPa 0,0 l/m 0 min 0 min 0 W/m 9,7 km/h (2 Bft) 97,87 %
17.03.2023 05:24 7,3 C 6,7 C 2,8 C 76 % 1009,0 hPa 0,0 l/m 0 min 0 min 0 W/m 12,9 km/h (3 Bft) 97,87 %
17.03.2023 05:26 7,3 C 6,7 C 2,8 C 76 % 1008,9 hPa 0,0 l/m 0 min 0 min 0 W/m 16,1 km/h (3 Bft) 100,00 %
17.03.2023 05:28 7,3 C 6,7 C 2,8 C 76 % 1008,9 hPa 0,0 l/m 0 min 0 min 0 W/m 16,1 km/h (3 Bft) 100,00 %
17.03.2023 05:30 7,3 C 6,7 C 2,8 C 76 % 1009,0 hPa 0,0 l/m 0 min 0 min 0 W/m 16,1 km/h (3 Bft) 100,00 %
17.03.2023 05:32 7,3 C 6,7 C 2,8 C 76 % 1009,0 hPa 0,0 l/m 0 min 0 min 0 W/m 12,9 km/h (3 Bft) 100,00 %
17.03.2023 05:34 7,3 C 6,7 C 2,8 C 76 % 1009,0 hPa 0,0 l/m 0 min 0 min 0 W/m 9,7 km/h (2 Bft) 100,00 %
17.03.2023 05:36 7,3 C 6,7 C 2,8 C 76 % 1009,0 hPa 0,0 l/m 0 min 0 min 0 W/m 19,3 km/h (3 Bft) 100,00 %
17.03.2023 05:38 7,3 C 6,7 C 2,8 C 76 % 1009,0 hPa 0,0 l/m 0 min 0 min 0 W/m 12,9 km/h (3 Bft) 100,00 %
17.03.2023 05:40 7,3 C 6,7 C 2,8 C 76 % 1009,0 hPa 0,0 l/m 0 min 0 min 0 W/m 16,1 km/h (3 Bft) 97,87 %
17.03.2023 05:42 7,3 C 6,7 C 2,8 C 76 % 1009,0 hPa 0,0 l/m 0 min 0 min 0 W/m 12,9 km/h (3 Bft) 100,00 %
17.03.2023 05:44 7,3 C 6,7 C 2,8 C 76 % 1009,0 hPa 0,0 l/m 0 min 0 min 0 W/m 19,3 km/h (3 Bft) 97,87 %
17.03.2023 05:46 7,3 C 6,7 C 2,8 C 76 % 1009,0 hPa 0,0 l/m 0 min 0 min 0 W/m 22,5 km/h (4 Bft) 97,83 %
17.03.2023 05:48 7,3 C 6,7 C 2,8 C 76 % 1008,9 hPa 0,0 l/m 0 min 0 min 0 W/m 22,5 km/h (4 Bft) 100,00 %
17.03.2023 05:50 7,3 C 6,7 C 2,8 C 76 % 1008,8 hPa 0,0 l/m 0 min 0 min 0 W/m 16,1 km/h (3 Bft) 97,87 %
17.03.2023 05:52 7,3 C 6,7 C 2,8 C 75 % 1008,7 hPa 0,0 l/m 0 min 0 min 0 W/m 16,1 km/h (3 Bft) 100,00 %
17.03.2023 05:54 7,3 C 6,7 C 2,8 C 75 % 1008,7 hPa 0,0 l/m 0 min 0 min 0 W/m 16,1 km/h (3 Bft) 97,87 %
17.03.2023 05:56 7,4 C 6,7 C 2,8 C 75 % 1008,8 hPa 0,0 l/m 0 min 0 min 0 W/m 16,1 km/h (3 Bft) 97,87 %
17.03.2023 05:58 7,3 C 6,7 C 2,8 C 75 % 1008,9 hPa 0,0 l/m 0 min 0 min 0 W/m 22,5 km/h (4 Bft) 100,00 %
17.03.2023 06:00 7,4 C 6,7 C 2,8 C 75 % 1008,9 hPa 0,0 l/m 0 min 0 min 0 W/m 16,1 km/h (3 Bft) 100,00 %
17.03.2023 06:02 7,4 C 6,7 C 2,8 C 75 % 1008,9 hPa 0,0 l/m 0 min 0 min 0 W/m 12,9 km/h (3 Bft) 97,87 %
17.03.2023 06:04 7,4 C 6,7 C 2,8 C 75 % 1008,9 hPa 0,0 l/m 0 min 0 min 0 W/m 25,7 km/h (4 Bft) 100,00 %
17.03.2023 06:07 7,4 C 6,7 C 2,8 C 75 % 1008,9 hPa 0,0 l/m 0 min 0 min 0 W/m 19,3 km/h (3 Bft) 100,00 %
17.03.2023 06:08 7,4 C 6,7 C 2,8 C 75 % 1008,9 hPa 0,0 l/m 0 min 0 min 0 W/m 16,1 km/h (3 Bft) 100,00 %
17.03.2023 06:12 7,4 C 6,7 C 2,8 C 75 % 1009,0 hPa 0,0 l/m 0 min 0 min 0 W/m 16,1 km/h (3 Bft) 100,00 %
17.03.2023 06:14 7,4 C 6,7 C 2,8 C 75 % 1009,0 hPa 0,0 l/m 0 min 0 min 0 W/m 22,5 km/h (4 Bft) 100,00 %
17.03.2023 06:16 7,4 C 6,7 C 2,8 C 75 % 1009,0 hPa 0,0 l/m 0 min 0 min 0 W/m 16,1 km/h (3 Bft) 100,00 %
17.03.2023 06:18 7,4 C 6,7 C 2,8 C 75 % 1009,0 hPa 0,0 l/m 0 min 0 min 0 W/m 19,3 km/h (3 Bft) 100,00 %
17.03.2023 06:20 7,4 C 6,7 C 2,8 C 75 % 1009,0 hPa 0,0 l/m 0 min 0 min 0 W/m 19,3 km/h (3 Bft) 100,00 %
17.03.2023 06:22 7,3 C 6,7 C 2,8 C 75 % 1009,0 hPa 0,0 l/m 0 min 0 min 0 W/m 19,3 km/h (3 Bft) 100,00 %
17.03.2023 06:24 7,3 C 6,7 C 2,8 C 75 % 1009,0 hPa 0,0 l/m 0 min 0 min 0 W/m 19,3 km/h (3 Bft) 100,00 %
17.03.2023 06:26 7,3 C 6,7 C 2,8 C 75 % 1009,0 hPa 0,0 l/m 0 min 0 min 0 W/m 19,3 km/h (3 Bft) 100,00 %
17.03.2023 06:28 7,3 C 6,7 C 2,8 C 75 % 1009,0 hPa 0,0 l/m 0 min 0 min 0 W/m 16,1 km/h (3 Bft) 100,00 %
17.03.2023 06:30 7,3 C 6,7 C 2,8 C 75 % 1009,0 hPa 0,0 l/m 0 min 0 min 0 W/m 19,3 km/h (3 Bft) 100,00 %
17.03.2023 06:32 7,3 C 6,7 C 2,8 C 75 % 1009,1 hPa 0,0 l/m 0 min 0 min 0 W/m 16,1 km/h (3 Bft) 100,00 %
17.03.2023 06:34 7,3 C 6,7 C 2,8 C 75 % 1009,0 hPa 0,0 l/m 0 min 0 min 0 W/m 16,1 km/h (3 Bft) 100,00 %
17.03.2023 06:36 7,3 C 6,7 C 2,8 C 75 % 1009,1 hPa 0,0 l/m 0 min 0 min 0 W/m 22,5 km/h (4 Bft) 97,87 %
17.03.2023 06:38 7,2 C 6,7 C 2,8 C 75 % 1009,0 hPa 0,0 l/m 0 min 0 min 0 W/m 22,5 km/h (4 Bft) 97,83 %
17.03.2023 06:40 7,2 C 6,7 C 2,8 C 75 % 1008,9 hPa 0,0 l/m 0 min 0 min 0 W/m 16,1 km/h (3 Bft) 100,00 %
17.03.2023 06:42 7,2 C 6,1 C 2,8 C 75 % 1008,9 hPa 0,0 l/m 0 min 0 min 0 W/m 16,1 km/h (3 Bft) 97,87 %
17.03.2023 06:44 7,2 C 6,7 C 2,8 C 75 % 1008,9 hPa 0,0 l/m 0 min 0 min 0 W/m 22,5 km/h (4 Bft) 95,74 %
17.03.2023 06:46 7,2 C 6,7 C 2,8 C 75 % 1008,9 hPa 0,0 l/m 0 min 0 min 0 W/m 19,3 km/h (3 Bft) 93,62 %
17.03.2023 06:48 7,2 C 6,7 C 2,8 C 75 % 1008,9 hPa 0,0 l/m 0 min 0 min 1 W/m 12,9 km/h (3 Bft) 95,74 %
17.03.2023 06:50 7,2 C 6,1 C 2,8 C 75 % 1008,8 hPa 0,0 l/m 0 min 0 min 5 W/m 19,3 km/h (3 Bft) 91,30 %
17.03.2023 06:52 7,2 C 6,1 C 2,8 C 75 % 1008,8 hPa 0,0 l/m 0 min 0 min 5 W/m 16,1 km/h (3 Bft) 95,74 %
17.03.2023 06:54 7,2 C 6,1 C 2,8 C 75 % 1008,8 hPa 0,0 l/m 0 min 0 min 6 W/m 19,3 km/h (3 Bft) 95,74 %
17.03.2023 06:56 7,2 C 6,1 C 2,8 C 75 % 1008,8 hPa 0,0 l/m 0 min 0 min 7 W/m 19,3 km/h (3 Bft) 95,74 %
17.03.2023 06:58 7,2 C 6,1 C 2,8 C 75 % 1008,8 hPa 0,0 l/m 0 min 0 min 9 W/m 12,9 km/h (3 Bft) 95,74 %
17.03.2023 07:00 7,2 C 6,7 C 2,8 C 75 % 1008,8 hPa 0,0 l/m 0 min 0 min 10 W/m 12,9 km/h (3 Bft) 93,62 %
17.03.2023 07:02 7,1 C 6,7 C 2,8 C 75 % 1008,9 hPa 0,0 l/m 0 min 0 min 12 W/m 12,9 km/h (3 Bft) 91,49 %
17.03.2023 07:04 7,1 C 6,7 C 2,8 C 75 % 1008,8 hPa 0,0 l/m 0 min 0 min 14 W/m 16,1 km/h (3 Bft) 95,74 %
17.03.2023 07:06 7,2 C 6,7 C 2,8 C 75 % 1008,9 hPa 0,0 l/m 0 min 0 min 16 W/m 16,1 km/h (3 Bft) 93,10 %
17.03.2023 07:08 7,2 C 6,7 C 2,8 C 75 % 1008,9 hPa 0,0 l/m 0 min 0 min 19 W/m 16,1 km/h (3 Bft) 94,29 %
17.03.2023 07:10 7,1 C 6,7 C 2,8 C 75 % 1008,9 hPa 0,0 l/m 0 min 0 min 21 W/m 12,9 km/h (3 Bft) 95,74 %
17.03.2023 07:12 7,2 C 6,7 C 2,8 C 75 % 1008,8 hPa 0,0 l/m 0 min 0 min 22 W/m 12,9 km/h (3 Bft) 93,62 %
17.03.2023 07:14 7,1 C 6,7 C 2,8 C 75 % 1008,8 hPa 0,0 l/m 0 min 0 min 24 W/m 12,9 km/h (3 Bft) 93,62 %
17.03.2023 07:16 7,2 C 6,7 C 2,8 C 75 % 1008,8 hPa 0,0 l/m 0 min 0 min 26 W/m 16,1 km/h (3 Bft) 95,74 %
17.03.2023 07:18 7,2 C 6,7 C 2,8 C 75 % 1008,8 hPa 0,0 l/m 0 min 0 min 28 W/m 16,1 km/h (3 Bft) 95,65 %
17.03.2023 07:20 7,2 C 6,7 C 2,8 C 75 % 1008,8 hPa 0,0 l/m 0 min 0 min 31 W/m 19,3 km/h (3 Bft) 95,74 %
17.03.2023 07:22 7,2 C 6,7 C 2,8 C 75 % 1008,8 hPa 0,0 l/m 0 min 0 min 34 W/m 22,5 km/h (4 Bft) 95,74 %
17.03.2023 07:24 7,2 C 6,7 C 2,8 C 76 % 1008,8 hPa 0,0 l/m 0 min 0 min 36 W/m 16,1 km/h (3 Bft) 93,62 %
17.03.2023 07:26 7,2 C 6,7 C 2,8 C 76 % 1008,7 hPa 0,0 l/m 0 min 0 min 39 W/m 22,5 km/h (4 Bft) 95,74 %
17.03.2023 07:28 7,2 C 6,7 C 2,8 C 76 % 1008,7 hPa 0,0 l/m 0 min 0 min 40 W/m 19,3 km/h (3 Bft) 97,87 %
17.03.2023 07:30 7,3 C 6,7 C 2,8 C 76 % 1008,7 hPa 0,0 l/m 0 min 0 min 42 W/m 16,1 km/h (3 Bft) 97,87 %
17.03.2023 07:32 7,3 C 6,7 C 2,8 C 76 % 1008,7 hPa 0,0 l/m 0 min 0 min 46 W/m 16,1 km/h (3 Bft) 97,83 %
17.03.2023 07:34 7,3 C 6,7 C 2,8 C 76 % 1008,7 hPa 0,0 l/m 0 min 0 min 48 W/m 16,1 km/h (3 Bft) 97,87 %
17.03.2023 07:36 7,3 C 6,7 C 2,8 C 76 % 1008,7 hPa 0,0 l/m 0 min 0 min 51 W/m 19,3 km/h (3 Bft) 93,62 %
17.03.2023 07:38 7,3 C 7,2 C 2,8 C 75 % 1008,7 hPa 0,0 l/m 0 min 0 min 54 W/m 12,9 km/h (3 Bft) 97,87 %
17.03.2023 07:40 7,4 C 7,2 C 2,8 C 75 % 1008,7 hPa 0,0 l/m 0 min 0 min 57 W/m 25,7 km/h (4 Bft) 95,74 %
17.03.2023 07:42 7,4 C 7,2 C 3,3 C 75 % 1008,8 hPa 0,0 l/m 0 min 0 min 60 W/m 22,5 km/h (4 Bft) 97,87 %
17.03.2023 07:44 7,4 C 7,2 C 3,3 C 75 % 1008,8 hPa 0,0 l/m 0 min 0 min 64 W/m 16,1 km/h (3 Bft) 98,28 %
17.03.2023 07:46 7,4 C 7,2 C 3,3 C 75 % 1008,8 hPa 0,0 l/m 0 min 0 min 68 W/m 22,5 km/h (4 Bft) 95,74 %
17.03.2023 07:48 7,4 C 7,2 C 3,3 C 75 % 1008,8 hPa 0,0 l/m 0 min 0 min 70 W/m 19,3 km/h (3 Bft) 97,87 %
17.03.2023 07:50 7,5 C 7,2 C 3,3 C 75 % 1008,8 hPa 0,0 l/m 0 min 0 min 74 W/m 19,3 km/h (3 Bft) 97,87 %
17.03.2023 07:52 7,6 C 7,2 C 3,3 C 75 % 1008,8 hPa 0,0 l/m 0 min 0 min 76 W/m 25,7 km/h (4 Bft) 95,74 %
17.03.2023 07:54 7,6 C 7,2 C 3,3 C 75 % 1008,8 hPa 0,0 l/m 0 min 0 min 77 W/m 25,7 km/h (4 Bft) 97,83 %
17.03.2023 07:56 7,6 C 7,8 C 3,3 C 75 % 1008,8 hPa 0,0 l/m 0 min 0 min 80 W/m 16,1 km/h (3 Bft) 97,87 %
17.03.2023 07:58 7,7 C 7,8 C 3,3 C 75 % 1008,9 hPa 0,0 l/m 0 min 0 min 82 W/m 16,1 km/h (3 Bft) 97,87 %
17.03.2023 08:00 7,7 C 7,8 C 3,3 C 75 % 1008,9 hPa 0,0 l/m 0 min 0 min 86 W/m 19,3 km/h (3 Bft) 97,87 %
17.03.2023 08:02 7,7 C 7,8 C 3,3 C 75 % 1008,8 hPa 0,0 l/m 0 min 0 min 90 W/m 19,3 km/h (3 Bft) 100,00 %
17.03.2023 08:04 7,8 C 7,8 C 3,3 C 74 % 1008,8 hPa 0,0 l/m 0 min 0 min 93 W/m 16,1 km/h (3 Bft) 97,87 %
17.03.2023 08:06 7,8 C 7,8 C 3,3 C 74 % 1008,8 hPa 0,0 l/m 0 min 0 min 97 W/m 16,1 km/h (3 Bft) 97,92 %
17.03.2023 08:08 7,9 C 7,8 C 3,9 C 75 % 1008,8 hPa 0,0 l/m 0 min 0 min 100 W/m 25,7 km/h (4 Bft) 97,83 %
17.03.2023 08:10 7,9 C 7,8 C 3,9 C 74 % 1008,9 hPa 0,0 l/m 0 min 0 min 102 W/m 19,3 km/h (3 Bft) 100,00 %
17.03.2023 08:12 7,9 C 7,8 C 3,9 C 74 % 1008,9 hPa 0,0 l/m 0 min 0 min 103 W/m 22,5 km/h (4 Bft) 95,74 %
17.03.2023 08:14 8,0 C 8,3 C 3,9 C 74 % 1008,9 hPa 0,0 l/m 0 min 0 min 104 W/m 19,3 km/h (3 Bft) 100,00 %
17.03.2023 08:16 8,1 C 8,3 C 3,9 C 74 % 1008,9 hPa 0,0 l/m 0 min 0 min 105 W/m 12,9 km/h (3 Bft) 100,00 %
17.03.2023 08:18 8,1 C 8,3 C 3,9 C 74 % 1009,0 hPa 0,0 l/m 0 min 0 min 106 W/m 19,3 km/h (3 Bft) 100,00 %
17.03.2023 08:20 8,2 C 8,3 C 3,9 C 74 % 1009,0 hPa 0,0 l/m 0 min 0 min 107 W/m 12,9 km/h (3 Bft) 100,00 %
17.03.2023 08:22 8,2 C 8,3 C 3,9 C 74 % 1009,0 hPa 0,0 l/m 0 min 0 min 110 W/m 19,3 km/h (3 Bft) 100,00 %
17.03.2023 08:24 8,3 C 8,3 C 3,9 C 74 % 1009,0 hPa 0,0 l/m 0 min 0 min 114 W/m 19,3 km/h (3 Bft) 100,00 %
17.03.2023 08:26 8,3 C 8,3 C 3,9 C 74 % 1009,0 hPa 0,0 l/m 0 min 0 min 117 W/m 22,5 km/h (4 Bft) 95,74 %
17.03.2023 08:28 8,4 C 8,3 C 3,9 C 73 % 1008,9 hPa 0,0 l/m 0 min 0 min 118 W/m 35,4 km/h (5 Bft) 100,00 %
17.03.2023 08:30 8,4 C 8,3 C 4,4 C 73 % 1008,9 hPa 0,0 l/m 0 min 0 min 117 W/m 19,3 km/h (3 Bft) 97,87 %
17.03.2023 08:32 8,5 C 8,3 C 4,4 C 73 % 1008,9 hPa 0,0 l/m 0 min 0 min 116 W/m 19,3 km/h (3 Bft) 97,87 %
17.03.2023 08:34 8,5 C 8,3 C 4,4 C 73 % 1008,8 hPa 0,0 l/m 0 min 0 min 117 W/m 12,9 km/h (3 Bft) 100,00 %
17.03.2023 08:36 8,6 C 8,9 C 4,4 C 73 % 1008,9 hPa 0,0 l/m 0 min 0 min 118 W/m 16,1 km/h (3 Bft) 100,00 %
17.03.2023 08:38 8,6 C 8,9 C 4,4 C 73 % 1008,8 hPa 0,0 l/m 0 min 0 min 118 W/m 16,1 km/h (3 Bft) 100,00 %
17.03.2023 08:40 8,6 C 8,9 C 4,4 C 73 % 1008,8 hPa 0,0 l/m 0 min 0 min 120 W/m 19,3 km/h (3 Bft) 97,87 %
17.03.2023 08:42 8,7 C 8,9 C 4,4 C 72 % 1008,8 hPa 0,0 l/m 0 min 0 min 122 W/m 22,5 km/h (4 Bft) 95,74 %
17.03.2023 08:44 8,7 C 8,9 C 4,4 C 73 % 1008,8 hPa 0,0 l/m 0 min 0 min 132 W/m 22,5 km/h (4 Bft) 95,74 %
17.03.2023 08:46 8,8 C 8,9 C 4,4 C 73 % 1008,8 hPa 0,0 l/m 0 min 0 min 143 W/m 22,5 km/h (4 Bft) 97,83 %
17.03.2023 08:48 8,8 C 8,9 C 4,4 C 72 % 1008,8 hPa 0,0 l/m 0 min 0 min 139 W/m 19,3 km/h (3 Bft) 97,87 %
17.03.2023 08:50 8,8 C 8,9 C 4,4 C 72 % 1008,8 hPa 0,0 l/m 0 min 0 min 145 W/m 16,1 km/h (3 Bft) 97,87 %
17.03.2023 08:52 8,9 C 9,4 C 4,4 C 72 % 1008,7 hPa 0,0 l/m 0 min 0 min 141 W/m 19,3 km/h (3 Bft) 97,87 %
17.03.2023 08:54 8,9 C 9,4 C 4,4 C 72 % 1008,7 hPa 0,0 l/m 0 min 0 min 137 W/m 16,1 km/h (3 Bft) 97,87 %
17.03.2023 08:56 8,9 C 9,4 C 4,4 C 72 % 1008,7 hPa 0,0 l/m 0 min 0 min 136 W/m 19,3 km/h (3 Bft) 95,74 %
17.03.2023 08:58 9,0 C 9,4 C 5,0 C 72 % 1008,8 hPa 0,0 l/m 0 min 0 min 135 W/m 19,3 km/h (3 Bft) 95,74 %
17.03.2023 09:00 9,1 C 9,4 C 5,0 C 72 % 1008,7 hPa 0,0 l/m 0 min 0 min 123 W/m 16,1 km/h (3 Bft) 97,83 %
17.03.2023 09:02 9,1 C 9,4 C 5,0 C 72 % 1008,8 hPa 0,0 l/m 0 min 0 min 119 W/m 22,5 km/h (4 Bft) 95,74 %
17.03.2023 09:04 9,1 C 9,4 C 5,0 C 71 % 1008,8 hPa 0,0 l/m 0 min 0 min 123 W/m 16,1 km/h (3 Bft) 93,62 %
17.03.2023 09:06 9,2 C 9,4 C 5,0 C 72 % 1008,7 hPa 0,0 l/m 0 min 0 min 135 W/m 16,1 km/h (3 Bft) 95,74 %
17.03.2023 09:08 9,2 C 9,4 C 5,0 C 72 % 1008,7 hPa 0,0 l/m 0 min 0 min 143 W/m 12,9 km/h (3 Bft) 100,00 %
17.03.2023 09:10 9,2 C 9,4 C 5,0 C 72 % 1008,7 hPa 0,0 l/m 0 min 0 min 144 W/m 16,1 km/h (3 Bft) 95,74 %
17.03.2023 09:12 9,2 C 9,4 C 5,0 C 72 % 1008,8 hPa 0,0 l/m 0 min 0 min 160 W/m 16,1 km/h (3 Bft) 93,62 %
17.03.2023 09:14 9,3 C 10,0 C 5,0 C 72 % 1008,8 hPa 0,0 l/m 0 min 0 min 168 W/m 19,3 km/h (3 Bft) 93,62 %
17.03.2023 09:16 9,3 C 10,0 C 5,0 C 72 % 1008,9 hPa 0,0 l/m 0 min 0 min 180 W/m 22,5 km/h (4 Bft) 97,87 %
17.03.2023 09:18 9,3 C 10,0 C 5,0 C 72 % 1008,9 hPa 0,0 l/m 2 min 0 min 188 W/m 19,3 km/h (3 Bft) 97,83 %
17.03.2023 09:20 9,4 C 10,0 C 5,6 C 71 % 1008,9 hPa 0,0 l/m 2 min 0 min 191 W/m 19,3 km/h (3 Bft) 95,74 %
17.03.2023 09:22 9,4 C 10,0 C 5,6 C 71 % 1008,9 hPa 0,0 l/m 0 min 0 min 188 W/m 19,3 km/h (3 Bft) 100,00 %
17.03.2023 09:24 9,5 C 10,6 C 5,6 C 71 % 1009,0 hPa 0,0 l/m 0 min 0 min 172 W/m 16,1 km/h (3 Bft) 100,00 %
17.03.2023 09:26 9,6 C 10,6 C 5,6 C 71 % 1008,9 hPa 0,0 l/m 0 min 0 min 178 W/m 12,9 km/h (3 Bft) 97,87 %
17.03.2023 09:28 9,6 C 10,6 C 5,6 C 71 % 1008,9 hPa 0,0 l/m 0 min 0 min 175 W/m 19,3 km/h (3 Bft) 100,00 %
17.03.2023 09:30 9,7 C 10,6 C 5,6 C 71 % 1008,9 hPa 0,0 l/m 0 min 0 min 164 W/m 19,3 km/h (3 Bft) 97,87 %
17.03.2023 09:32 9,7 C 11,1 C 6,1 C 71 % 1008,9 hPa 0,0 l/m 0 min 0 min 165 W/m 19,3 km/h (3 Bft) 97,83 %
17.03.2023 09:34 9,8 C 11,1 C 6,1 C 70 % 1008,9 hPa 0,0 l/m 0 min 0 min 164 W/m 19,3 km/h (3 Bft) 98,21 %
17.03.2023 09:36 9,8 C 11,1 C 6,1 C 70 % 1009,0 hPa 0,0 l/m 0 min 0 min 185 W/m 22,5 km/h (4 Bft) 97,87 %
17.03.2023 09:38 9,8 C 11,1 C 6,1 C 70 % 1009,0 hPa 0,0 l/m 0 min 0 min 192 W/m 19,3 km/h (3 Bft) 97,83 %
17.03.2023 09:40 9,9 C 11,1 C 6,1 C 70 % 1008,9 hPa 0,0 l/m 2 min 0 min 222 W/m 22,5 km/h (4 Bft) 97,87 %
17.03.2023 09:42 9,9 C 11,1 C 6,1 C 70 % 1009,0 hPa 0,0 l/m 2 min 0 min 215 W/m 19,3 km/h (3 Bft) 97,87 %
17.03.2023 09:44 10,1 C 11,1 C 6,1 C 70 % 1009,0 hPa 0,0 l/m 0 min 0 min 210 W/m 25,7 km/h (4 Bft) 95,74 %
17.03.2023 09:46 10,1 C 11,7 C 6,1 C 70 % 1009,0 hPa 0,0 l/m 2 min 0 min 249 W/m 16,1 km/h (3 Bft) 95,74 %
17.03.2023 09:48 10,1 C 11,7 C 6,7 C 70 % 1008,9 hPa 0,0 l/m 2 min 0 min 266 W/m 16,1 km/h (3 Bft) 91,49 %
17.03.2023 09:50 10,2 C 11,7 C 6,7 C 70 % 1008,8 hPa 0,0 l/m 2 min 0 min 234 W/m 22,5 km/h (4 Bft) 95,74 %
17.03.2023 09:52 10,3 C 11,7 C 6,7 C 69 % 1008,8 hPa 0,0 l/m 2 min 0 min 293 W/m 19,3 km/h (3 Bft) 97,83 %
17.03.2023 09:54 10,3 C 11,7 C 6,7 C 69 % 1008,8 hPa 0,0 l/m 2 min 0 min 223 W/m 22,5 km/h (4 Bft) 95,74 %
17.03.2023 09:56 10,4 C 11,7 C 6,7 C 69 % 1008,8 hPa 0,0 l/m 0 min 0 min 200 W/m 19,3 km/h (3 Bft) 93,62 %
17.03.2023 09:58 10,5 C 11,7 C 6,7 C 69 % 1008,8 hPa 0,0 l/m 2 min 0 min 244 W/m 19,3 km/h (3 Bft) 95,74 %
17.03.2023 10:00 10,6 C 11,7 C 6,7 C 69 % 1008,7 hPa 0,0 l/m 2 min 0 min 236 W/m 22,5 km/h (4 Bft) 95,74 %
17.03.2023 10:02 10,6 C 12,2 C 7,2 C 69 % 1008,7 hPa 0,0 l/m 2 min 0 min 227 W/m 16,1 km/h (3 Bft) 93,62 %
17.03.2023 10:04 10,7 C 12,8 C 7,2 C 69 % 1008,7 hPa 0,0 l/m 2 min 0 min 308 W/m 19,3 km/h (3 Bft) 93,48 %
17.03.2023 10:06 10,8 C 13,3 C 7,8 C 69 % 1008,7 hPa 0,0 l/m 2 min 0 min 245 W/m 12,9 km/h (3 Bft) 95,74 %
17.03.2023 10:08 10,9 C 13,3 C 7,8 C 69 % 1008,7 hPa 0,0 l/m 2 min 0 min 317 W/m 19,3 km/h (3 Bft) 93,62 %
17.03.2023 10:10 11,1 C 13,9 C 7,8 C 68 % 1008,7 hPa 0,0 l/m 2 min 0 min 408 W/m 19,3 km/h (3 Bft) 95,74 %
17.03.2023 10:12 11,1 C 14,4 C 8,3 C 68 % 1008,7 hPa 0,0 l/m 2 min 0 min 378 W/m 16,1 km/h (3 Bft) 93,62 %
17.03.2023 10:14 11,3 C 14,4 C 8,3 C 68 % 1008,7 hPa 0,0 l/m 2 min 0 min 345 W/m 19,3 km/h (3 Bft) 95,74 %
17.03.2023 10:16 11,4 C 13,9 C 8,9 C 67 % 1008,8 hPa 0,0 l/m 2 min 0 min 333 W/m 22,5 km/h (4 Bft) 93,62 %
17.03.2023 10:18 11,6 C 13,9 C 8,9 C 67 % 1008,8 hPa 0,0 l/m 2 min 0 min 418 W/m 29,0 km/h (5 Bft) 93,48 %
17.03.2023 10:20 11,6 C 13,9 C 8,9 C 67 % 1008,7 hPa 0,0 l/m 2 min 0 min 353 W/m 22,5 km/h (4 Bft) 95,74 %
17.03.2023 10:22 11,7 C 13,9 C 8,9 C 67 % 1008,8 hPa 0,0 l/m 2 min 0 min 394 W/m 19,3 km/h (3 Bft) 95,74 %
17.03.2023 10:24 11,8 C 14,4 C 9,4 C 67 % 1008,7 hPa 0,0 l/m 2 min 0 min 431 W/m 16,1 km/h (3 Bft) 89,36 %
17.03.2023 10:26 11,9 C 15,0 C 9,4 C 66 % 1008,8 hPa 0,0 l/m 2 min 0 min 441 W/m 25,7 km/h (4 Bft) 91,49 %
17.03.2023 10:28 12,0 C 15,0 C 9,4 C 66 % 1008,7 hPa 0,0 l/m 2 min 0 min 343 W/m 19,3 km/h (3 Bft) 95,74 %
17.03.2023 10:30 12,1 C 15,6 C 10,0 C 66 % 1008,7 hPa 0,0 l/m 2 min 0 min 282 W/m 19,3 km/h (3 Bft) 89,36 %
17.03.2023 10:32 12,2 C 15,6 C 10,0 C 66 % 1008,8 hPa 0,0 l/m 2 min 0 min 387 W/m 19,3 km/h (3 Bft) 91,30 %
17.03.2023 10:34 12,3 C 16,1 C 10,0 C 66 % 1008,7 hPa 0,0 l/m 2 min 0 min 386 W/m 19,3 km/h (3 Bft) 91,49 %
17.03.2023 10:36 12,4 C 16,7 C 10,6 C 66 % 1008,7 hPa 0,0 l/m 2 min 0 min 363 W/m 19,3 km/h (3 Bft) 82,98 %
17.03.2023 10:38 12,4 C 16,7 C 11,1 C 65 % 1008,7 hPa 0,0 l/m 2 min 0 min 357 W/m 25,7 km/h (4 Bft) 97,87 %
17.03.2023 10:40 12,6 C 17,2 C 11,7 C 65 % 1008,8 hPa 0,0 l/m 2 min 0 min 454 W/m 16,1 km/h (3 Bft) 95,74 %
17.03.2023 10:42 12,6 C 18,3 C 12,2 C 65 % 1008,7 hPa 0,0 l/m 2 min 0 min 455 W/m 16,1 km/h (3 Bft) 95,74 %
17.03.2023 10:44 12,8 C 18,3 C 12,2 C 65 % 1008,7 hPa 0,0 l/m 2 min 0 min 434 W/m 16,1 km/h (3 Bft) 93,48 %
17.03.2023 10:46 12,9 C 18,9 C 12,8 C 64 % 1008,7 hPa 0,0 l/m 2 min 0 min 425 W/m 12,9 km/h (3 Bft) 98,00 %
17.03.2023 10:48 13,0 C 18,3 C 12,8 C 63 % 1008,8 hPa 0,0 l/m 2 min 0 min 411 W/m 25,7 km/h (4 Bft) 97,87 %
17.03.2023 10:50 13,1 C 16,7 C 11,7 C 63 % 1008,8 hPa 0,0 l/m 2 min 0 min 363 W/m 25,7 km/h (4 Bft) 95,74 %
17.03.2023 10:52 13,2 C 15,6 C 11,1 C 62 % 1008,8 hPa 0,0 l/m 2 min 0 min 338 W/m 29,0 km/h (5 Bft) 97,87 %
17.03.2023 10:54 13,2 C 16,1 C 11,1 C 62 % 1008,7 hPa 0,0 l/m 2 min 0 min 355 W/m 32,2 km/h (5 Bft) 97,87 %
17.03.2023 10:56 13,2 C 16,1 C 11,1 C 62 % 1008,7 hPa 0,0 l/m 2 min 0 min 453 W/m 19,3 km/h (3 Bft) 97,87 %
17.03.2023 10:58 13,2 C 16,1 C 11,1 C 63 % 1008,7 hPa 0,0 l/m 2 min 0 min 404 W/m 19,3 km/h (3 Bft) 97,14 %
17.03.2023 11:00 13,3 C 15,6 C 11,1 C 62 % 1008,7 hPa 0,0 l/m 2 min 0 min 376 W/m 22,5 km/h (4 Bft) 95,74 %
17.03.2023 11:02 13,3 C 15,6 C 10,6 C 63 % 1008,7 hPa 0,0 l/m 2 min 0 min 358 W/m 22,5 km/h (4 Bft) 97,83 %
17.03.2023 11:04 13,3 C 15,6 C 10,6 C 63 % 1008,7 hPa 0,0 l/m 2 min 0 min 322 W/m 16,1 km/h (3 Bft) 96,61 %
17.03.2023 11:06 13,3 C 15,6 C 10,6 C 63 % 1008,7 hPa 0,0 l/m 2 min 0 min 379 W/m 19,3 km/h (3 Bft) 95,74 %
17.03.2023 11:08 13,3 C 15,0 C 10,6 C 63 % 1008,7 hPa 0,0 l/m 2 min 0 min 348 W/m 29,0 km/h (5 Bft) 97,87 %
17.03.2023 11:10 13,3 C 15,0 C 10,6 C 62 % 1008,7 hPa 0,0 l/m 2 min 0 min 379 W/m 29,0 km/h (5 Bft) 97,14 %
17.03.2023 11:12 13,3 C 15,6 C 11,1 C 62 % 1008,8 hPa 0,0 l/m 2 min 0 min 441 W/m 19,3 km/h (3 Bft) 98,28 %
17.03.2023 11:14 13,3 C 15,6 C 11,1 C 63 % 1008,9 hPa 0,0 l/m 2 min 0 min 344 W/m 16,1 km/h (3 Bft) 97,22 %
17.03.2023 11:16 13,3 C 16,1 C 11,1 C 63 % 1008,8 hPa 0,0 l/m 2 min 0 min 389 W/m 25,7 km/h (4 Bft) 98,28 %
17.03.2023 11:18 13,4 C 16,7 C 11,7 C 63 % 1008,8 hPa 0,0 l/m 2 min 0 min 468 W/m 22,5 km/h (4 Bft) 100,00 %
17.03.2023 11:20 13,4 C 18,3 C 12,2 C 63 % 1008,9 hPa 0,0 l/m 2 min 0 min 566 W/m 22,5 km/h (4 Bft) 97,92 %
17.03.2023 11:22 13,5 C 18,9 C 12,8 C 63 % 1008,9 hPa 0,0 l/m 2 min 0 min 599 W/m 19,3 km/h (3 Bft) 96,30 %
17.03.2023 11:24 13,6 C 18,3 C 12,8 C 63 % 1008,9 hPa 0,0 l/m 2 min 0 min 589 W/m 22,5 km/h (4 Bft) 100,00 %
17.03.2023 11:26 13,7 C 19,4 C 13,3 C 63 % 1008,9 hPa 0,0 l/m 2 min 0 min 610 W/m 16,1 km/h (3 Bft) 100,00 %
17.03.2023 11:28 13,8 C 20,0 C 13,9 C 63 % 1008,8 hPa 0,0 l/m 2 min 0 min 587 W/m 16,1 km/h (3 Bft) 97,87 %
17.03.2023 11:30 13,9 C 19,4 C 13,9 C 62 % 1008,8 hPa 0,0 l/m 2 min 0 min 574 W/m 19,3 km/h (3 Bft) 100,00 %
17.03.2023 11:32 14,0 C 18,9 C 13,3 C 62 % 1008,8 hPa 0,0 l/m 2 min 0 min 453 W/m 19,3 km/h (3 Bft) 100,00 %
17.03.2023 11:34 14,1 C 18,3 C 13,3 C 62 % 1008,7 hPa 0,0 l/m 2 min 0 min 404 W/m 19,3 km/h (3 Bft) 100,00 %
17.03.2023 11:36 14,1 C 17,8 C 12,8 C 62 % 1008,7 hPa 0,0 l/m 2 min 0 min 464 W/m 19,3 km/h (3 Bft) 100,00 %
17.03.2023 11:38 14,2 C 17,8 C 12,2 C 62 % 1008,7 hPa 0,0 l/m 2 min 0 min 434 W/m 16,1 km/h (3 Bft) 100,00 %
17.03.2023 11:40 14,3 C 17,2 C 12,2 C 62 % 1008,8 hPa 0,0 l/m 2 min 0 min 342 W/m 16,1 km/h (3 Bft) 100,00 %
17.03.2023 11:42 14,3 C 16,7 C 11,7 C 62 % 1008,7 hPa 0,0 l/m 0 min 0 min 278 W/m 19,3 km/h (3 Bft) 100,00 %
17.03.2023 11:44 14,3 C 15,6 C 11,1 C 62 % 1008,6 hPa 0,0 l/m 0 min 0 min 287 W/m 16,1 km/h (3 Bft) 97,87 %
17.03.2023 11:46 14,3 C 15,6 C 11,1 C 62 % 1008,6 hPa 0,0 l/m 2 min 0 min 327 W/m 16,1 km/h (3 Bft) 100,00 %
17.03.2023 11:48 14,3 C 15,6 C 10,6 C 62 % 1008,5 hPa 0,0 l/m 2 min 0 min 350 W/m 19,3 km/h (3 Bft) 100,00 %
17.03.2023 11:50 14,3 C 15,6 C 10,6 C 62 % 1008,6 hPa 0,0 l/m 2 min 0 min 350 W/m 22,5 km/h (4 Bft) 100,00 %
17.03.2023 11:52 14,2 C 15,6 C 10,6 C 62 % 1008,6 hPa 0,0 l/m 2 min 0 min 371 W/m 19,3 km/h (3 Bft) 100,00 %
17.03.2023 11:54 14,2 C 15,6 C 10,6 C 63 % 1008,6 hPa 0,0 l/m 2 min 0 min 395 W/m 16,1 km/h (3 Bft) 97,87 %
17.03.2023 11:56 14,2 C 16,1 C 11,1 C 63 % 1008,6 hPa 0,0 l/m 2 min 0 min 493 W/m 19,3 km/h (3 Bft) 100,00 %
17.03.2023 11:58 14,3 C 16,1 C 11,1 C 62 % 1008,5 hPa 0,0 l/m 2 min 0 min 554 W/m 19,3 km/h (3 Bft) 97,87 %
17.03.2023 12:00 14,3 C 16,1 C 11,7 C 62 % 1008,5 hPa 0,0 l/m 2 min 0 min 474 W/m 22,5 km/h (4 Bft) 97,87 %
17.03.2023 12:02 14,3 C 16,1 C 11,7 C 63 % 1008,5 hPa 0,0 l/m 2 min 0 min 397 W/m 16,1 km/h (3 Bft) 97,87 %
17.03.2023 12:04 14,3 C 16,1 C 11,7 C 62 % 1008,5 hPa 0,0 l/m 2 min 0 min 397 W/m 25,7 km/h (4 Bft) 95,74 %
17.03.2023 12:07 14,4 C 16,1 C 11,7 C 62 % 1008,5 hPa 0,0 l/m 3 min 0 min 480 W/m 22,5 km/h (4 Bft) 100,00 %
17.03.2023 12:08 14,4 C 16,1 C 11,7 C 62 % 1008,5 hPa 0,0 l/m 1 min 0 min 522 W/m 22,5 km/h (4 Bft) 100,00 %
17.03.2023 12:12 14,6 C 16,1 C 11,7 C 61 % 1008,4 hPa 0,0 l/m 4 min 0 min 348 W/m 19,3 km/h (3 Bft) 100,00 %
17.03.2023 12:14 14,7 C 16,1 C 11,7 C 62 % 1008,4 hPa 0,0 l/m 2 min 0 min 409 W/m 19,3 km/h (3 Bft) 97,87 %
17.03.2023 12:16 14,7 C 16,1 C 11,7 C 62 % 1008,5 hPa 0,0 l/m 2 min 0 min 335 W/m 22,5 km/h (4 Bft) 100,00 %
17.03.2023 12:18 14,8 C 16,1 C 11,7 C 62 % 1008,4 hPa 0,0 l/m 2 min 0 min 328 W/m 16,1 km/h (3 Bft) 100,00 %
17.03.2023 12:20 14,9 C 16,7 C 11,7 C 61 % 1008,5 hPa 0,0 l/m 2 min 0 min 383 W/m 25,7 km/h (4 Bft) 100,00 %
17.03.2023 12:22 15,0 C 16,1 C 11,7 C 61 % 1008,5 hPa 0,0 l/m 2 min 0 min 457 W/m 19,3 km/h (3 Bft) 100,00 %
17.03.2023 12:24 15,1 C 16,7 C 12,2 C 61 % 1008,4 hPa 0,0 l/m 2 min 0 min 479 W/m 16,1 km/h (3 Bft) 100,00 %
17.03.2023 12:26 15,1 C 16,7 C 12,2 C 61 % 1008,4 hPa 0,0 l/m 2 min 0 min 438 W/m 22,5 km/h (4 Bft) 100,00 %
17.03.2023 12:28 15,2 C 16,7 C 12,2 C 61 % 1008,3 hPa 0,0 l/m 2 min 0 min 434 W/m 19,3 km/h (3 Bft) 97,87 %
17.03.2023 12:30 15,3 C 16,7 C 11,7 C 61 % 1008,2 hPa 0,0 l/m 2 min 0 min 354 W/m 16,1 km/h (3 Bft) 95,74 %
17.03.2023 12:32 15,3 C 16,7 C 11,7 C 61 % 1008,2 hPa 0,0 l/m 2 min 0 min 368 W/m 16,1 km/h (3 Bft) 97,87 %
17.03.2023 12:34 15,4 C 17,2 C 12,2 C 61 % 1008,2 hPa 0,0 l/m 2 min 0 min 529 W/m 16,1 km/h (3 Bft) 95,74 %
17.03.2023 12:36 15,4 C 16,7 C 12,2 C 60 % 1008,1 hPa 0,0 l/m 2 min 0 min 510 W/m 25,7 km/h (4 Bft) 97,87 %
17.03.2023 12:38 15,6 C 16,7 C 12,2 C 60 % 1008,1 hPa 0,0 l/m 2 min 0 min 494 W/m 22,5 km/h (4 Bft) 97,83 %
17.03.2023 12:40 15,6 C 17,2 C 11,7 C 60 % 1008,1 hPa 0,0 l/m 2 min 0 min 516 W/m 22,5 km/h (4 Bft) 97,87 %
17.03.2023 12:42 15,7 C 17,2 C 11,7 C 60 % 1008,0 hPa 0,0 l/m 2 min 0 min 497 W/m 19,3 km/h (3 Bft) 97,87 %
17.03.2023 12:44 15,7 C 17,2 C 11,7 C 61 % 1008,1 hPa 0,0 l/m 2 min 0 min 421 W/m 22,5 km/h (4 Bft) 97,87 %
17.03.2023 12:46 15,8 C 17,2 C 11,7 C 60 % 1008,1 hPa 0,0 l/m 2 min 0 min 358 W/m 16,1 km/h (3 Bft) 95,74 %
17.03.2023 12:48 15,8 C 17,2 C 11,7 C 61 % 1008,1 hPa 0,0 l/m 2 min 0 min 349 W/m 19,3 km/h (3 Bft) 93,62 %
17.03.2023 12:50 15,9 C 17,2 C 11,7 C 60 % 1008,0 hPa 0,0 l/m 2 min 0 min 382 W/m 22,5 km/h (4 Bft) 97,83 %
17.03.2023 12:52 15,9 C 17,8 C 11,7 C 60 % 1008,0 hPa 0,0 l/m 2 min 0 min 390 W/m 22,5 km/h (4 Bft) 95,74 %
17.03.2023 12:54 16,0 C 17,8 C 11,7 C 59 % 1008,0 hPa 0,0 l/m 2 min 0 min 420 W/m 22,5 km/h (4 Bft) 89,36 %
17.03.2023 12:56 16,0 C 18,3 C 11,7 C 59 % 1008,0 hPa 0,0 l/m 2 min 0 min 481 W/m 19,3 km/h (3 Bft) 93,62 %
17.03.2023 12:58 16,1 C 17,8 C 11,7 C 59 % 1007,9 hPa 0,0 l/m 2 min 0 min 422 W/m 16,1 km/h (3 Bft) 95,74 %
17.03.2023 13:00 16,1 C 17,2 C 11,7 C 59 % 1008,0 hPa 0,0 l/m 0 min 0 min 294 W/m 19,3 km/h (3 Bft) 93,62 %
17.03.2023 13:02 16,1 C 18,3 C 12,2 C 59 % 1008,1 hPa 0,0 l/m 2 min 0 min 301 W/m 16,1 km/h (3 Bft) 91,49 %
17.03.2023 13:04 16,2 C 18,9 C 12,2 C 59 % 1008,1 hPa 0,0 l/m 2 min 0 min 423 W/m 19,3 km/h (3 Bft) 95,65 %
17.03.2023 13:06 16,2 C 19,4 C 12,2 C 59 % 1008,0 hPa 0,0 l/m 2 min 0 min 515 W/m 16,1 km/h (3 Bft) 87,23 %
17.03.2023 13:08 16,3 C 19,4 C 12,2 C 59 % 1008,0 hPa 0,0 l/m 2 min 0 min 415 W/m 16,1 km/h (3 Bft) 95,74 %
17.03.2023 13:10 16,3 C 19,4 C 12,2 C 60 % 1007,9 hPa 0,0 l/m 2 min 0 min 385 W/m 6,4 km/h (2 Bft) 97,87 %
17.03.2023 13:12 16,4 C 18,9 C 12,2 C 59 % 1007,9 hPa 0,0 l/m 2 min 0 min 389 W/m 19,3 km/h (3 Bft) 97,87 %
17.03.2023 13:14 16,4 C 19,4 C 12,2 C 59 % 1007,9 hPa 0,0 l/m 2 min 0 min 450 W/m 16,1 km/h (3 Bft) 97,87 %
17.03.2023 13:16 16,5 C 18,9 C 12,2 C 59 % 1008,0 hPa 0,0 l/m 2 min 0 min 445 W/m 19,3 km/h (3 Bft) 95,74 %
17.03.2023 13:18 16,6 C 18,9 C 12,2 C 59 % 1007,9 hPa 0,0 l/m 2 min 0 min 423 W/m 12,9 km/h (3 Bft) 95,65 %
17.03.2023 13:20 16,6 C 18,9 C 12,2 C 59 % 1007,8 hPa 0,0 l/m 2 min 0 min 376 W/m 16,1 km/h (3 Bft) 97,87 %
17.03.2023 13:22 16,7 C 18,9 C 12,2 C 59 % 1007,9 hPa 0,0 l/m 2 min 0 min 407 W/m 16,1 km/h (3 Bft) 95,74 %
17.03.2023 13:24 16,7 C 18,9 C 12,2 C 59 % 1007,8 hPa 0,0 l/m 2 min 0 min 376 W/m 22,5 km/h (4 Bft) 97,87 %
17.03.2023 13:26 16,8 C 18,9 C 12,2 C 59 % 1007,8 hPa 0,0 l/m 2 min 0 min 407 W/m 12,9 km/h (3 Bft) 97,87 %
17.03.2023 13:28 16,8 C 19,4 C 12,8 C 59 % 1007,8 hPa 0,0 l/m 2 min 0 min 429 W/m 19,3 km/h (3 Bft) 97,87 %
17.03.2023 13:30 16,9 C 19,4 C 12,8 C 58 % 1007,8 hPa 0,0 l/m 2 min 0 min 457 W/m 19,3 km/h (3 Bft) 100,00 %
17.03.2023 13:32 16,9 C 19,4 C 12,8 C 58 % 1007,8 hPa 0,0 l/m 2 min 0 min 482 W/m 22,5 km/h (4 Bft) 97,83 %
17.03.2023 13:34 16,9 C 18,9 C 12,8 C 58 % 1007,8 hPa 0,0 l/m 2 min 0 min 420 W/m 19,3 km/h (3 Bft) 95,74 %
17.03.2023 13:36 16,9 C 18,9 C 12,2 C 57 % 1007,7 hPa 0,0 l/m 2 min 0 min 392 W/m 22,5 km/h (4 Bft) 100,00 %
17.03.2023 13:38 16,9 C 18,3 C 12,2 C 57 % 1007,7 hPa 0,0 l/m 2 min 0 min 361 W/m 16,1 km/h (3 Bft) 98,00 %
17.03.2023 13:40 16,9 C 17,8 C 12,2 C 58 % 1007,7 hPa 0,0 l/m 2 min 0 min 349 W/m 16,1 km/h (3 Bft) 97,14 %
17.03.2023 13:42 16,9 C 17,8 C 12,2 C 57 % 1007,7 hPa 0,0 l/m 2 min 0 min 344 W/m 22,5 km/h (4 Bft) 96,00 %
17.03.2023 13:44 16,9 C 17,8 C 12,2 C 58 % 1007,7 hPa 0,0 l/m 2 min 0 min 372 W/m 16,1 km/h (3 Bft) 100,00 %
17.03.2023 13:46 16,9 C 17,8 C 12,2 C 58 % 1007,6 hPa 0,0 l/m 2 min 0 min 384 W/m 19,3 km/h (3 Bft) 100,00 %
17.03.2023 13:48 16,8 C 17,8 C 12,2 C 57 % 1007,7 hPa 0,0 l/m 2 min 0 min 380 W/m 19,3 km/h (3 Bft) 100,00 %
17.03.2023 13:50 16,8 C 17,8 C 12,2 C 58 % 1007,6 hPa 0,0 l/m 2 min 0 min 404 W/m 16,1 km/h (3 Bft) 97,92 %
17.03.2023 13:52 16,8 C 18,3 C 12,2 C 58 % 1007,5 hPa 0,0 l/m 2 min 0 min 411 W/m 19,3 km/h (3 Bft) 93,62 %
17.03.2023 13:54 16,8 C 18,3 C 12,2 C 58 % 1007,6 hPa 0,0 l/m 2 min 0 min 419 W/m 16,1 km/h (3 Bft) 100,00 %
17.03.2023 13:56 16,8 C 18,3 C 12,2 C 58 % 1007,6 hPa 0,0 l/m 2 min 0 min 399 W/m 12,9 km/h (3 Bft) 94,74 %
17.03.2023 13:58 16,9 C 17,8 C 12,2 C 58 % 1007,6 hPa 0,0 l/m 2 min 0 min 368 W/m 19,3 km/h (3 Bft) 97,87 %
17.03.2023 14:00 16,9 C 17,8 C 12,2 C 58 % 1007,6 hPa 0,0 l/m 2 min 0 min 350 W/m 19,3 km/h (3 Bft) 97,83 %
17.03.2023 14:02 16,8 C 17,8 C 12,2 C 58 % 1007,5 hPa 0,0 l/m 2 min 0 min 350 W/m 19,3 km/h (3 Bft) 97,87 %
17.03.2023 14:04 16,8 C 17,8 C 12,2 C 58 % 1007,5 hPa 0,0 l/m 2 min 0 min 348 W/m 16,1 km/h (3 Bft) 97,87 %
17.03.2023 14:06 16,8 C 17,8 C 12,2 C 58 % 1007,6 hPa 0,0 l/m 2 min 0 min 333 W/m 16,1 km/h (3 Bft) 96,61 %
17.03.2023 14:08 16,8 C 17,2 C 12,2 C 58 % 1007,6 hPa 0,0 l/m 2 min 0 min 328 W/m 16,1 km/h (3 Bft) 97,30 %
17.03.2023 14:10 16,8 C 17,8 C 12,2 C 58 % 1007,5 hPa 0,0 l/m 2 min 0 min 341 W/m 12,9 km/h (3 Bft) 95,74 %
17.03.2023 14:12 16,8 C 17,2 C 12,2 C 58 % 1007,6 hPa 0,0 l/m 2 min 0 min 344 W/m 22,5 km/h (4 Bft) 97,83 %
17.03.2023 14:14 16,8 C 17,2 C 12,2 C 58 % 1007,5 hPa 0,0 l/m 2 min 0 min 336 W/m 16,1 km/h (3 Bft) 97,87 %
17.03.2023 14:16 16,8 C 17,2 C 12,2 C 58 % 1007,4 hPa 0,0 l/m 2 min 0 min 332 W/m 19,3 km/h (3 Bft) 97,87 %
17.03.2023 14:18 16,8 C 17,2 C 12,2 C 58 % 1007,4 hPa 0,0 l/m 2 min 0 min 340 W/m 16,1 km/h (3 Bft) 97,87 %
17.03.2023 14:20 16,8 C 17,8 C 12,2 C 59 % 1007,4 hPa 0,0 l/m 2 min 0 min 334 W/m 19,3 km/h (3 Bft) 95,74 %
17.03.2023 14:22 16,8 C 17,2 C 12,2 C 58 % 1007,4 hPa 0,0 l/m 2 min 0 min 322 W/m 22,5 km/h (4 Bft) 97,87 %
17.03.2023 14:24 16,8 C 17,2 C 12,2 C 58 % 1007,4 hPa 0,0 l/m 2 min 0 min 327 W/m 16,1 km/h (3 Bft) 95,74 %
17.03.2023 14:26 16,8 C 17,8 C 12,2 C 59 % 1007,4 hPa 0,0 l/m 2 min 0 min 312 W/m 16,1 km/h (3 Bft) 97,83 %
17.03.2023 14:28 16,8 C 17,2 C 12,2 C 59 % 1007,3 hPa 0,0 l/m 2 min 0 min 303 W/m 16,1 km/h (3 Bft) 100,00 %
17.03.2023 14:30 16,8 C 17,2 C 12,2 C 59 % 1007,3 hPa 0,0 l/m 2 min 0 min 296 W/m 19,3 km/h (3 Bft) 97,87 %
17.03.2023 14:32 16,8 C 17,2 C 12,2 C 58 % 1007,3 hPa 0,0 l/m 2 min 0 min 291 W/m 19,3 km/h (3 Bft) 97,87 %
17.03.2023 14:34 16,8 C 17,2 C 12,2 C 59 % 1007,3 hPa 0,0 l/m 2 min 0 min 298 W/m 12,9 km/h (3 Bft) 97,87 %
17.03.2023 14:36 16,8 C 17,2 C 12,2 C 58 % 1007,3 hPa 0,0 l/m 2 min 0 min 290 W/m 19,3 km/h (3 Bft) 97,87 %
17.03.2023 14:38 16,8 C 17,2 C 12,2 C 58 % 1007,2 hPa 0,0 l/m 2 min 0 min 281 W/m 22,5 km/h (4 Bft) 95,74 %
17.03.2023 14:40 16,8 C 17,2 C 12,2 C 58 % 1007,2 hPa 0,0 l/m 2 min 0 min 284 W/m 12,9 km/h (3 Bft) 97,83 %
17.03.2023 14:42 16,9 C 17,2 C 12,2 C 58 % 1007,2 hPa 0,0 l/m 2 min 0 min 289 W/m 12,9 km/h (3 Bft) 97,87 %
17.03.2023 14:44 16,9 C 17,2 C 12,2 C 59 % 1007,2 hPa 0,0 l/m 2 min 0 min 280 W/m 19,3 km/h (3 Bft) 97,87 %
17.03.2023 14:46 16,9 C 17,2 C 12,2 C 59 % 1007,2 hPa 0,0 l/m 2 min 0 min 278 W/m 12,9 km/h (3 Bft) 97,87 %
17.03.2023 14:48 16,9 C 17,2 C 12,2 C 59 % 1007,3 hPa 0,0 l/m 2 min 0 min 272 W/m 12,9 km/h (3 Bft) 97,87 %
17.03.2023 14:50 16,9 C 17,2 C 12,2 C 58 % 1007,3 hPa 0,0 l/m 2 min 0 min 259 W/m 16,1 km/h (3 Bft) 97,87 %
17.03.2023 14:52 16,9 C 17,2 C 12,2 C 58 % 1007,3 hPa 0,0 l/m 2 min 0 min 258 W/m 19,3 km/h (3 Bft) 100,00 %
17.03.2023 14:54 16,9 C 17,2 C 12,2 C 58 % 1007,3 hPa 0,0 l/m 2 min 0 min 256 W/m 16,1 km/h (3 Bft) 100,00 %
17.03.2023 14:56 16,9 C 17,2 C 12,2 C 58 % 1007,3 hPa 0,0 l/m 0 min 0 min 248 W/m 12,9 km/h (3 Bft) 100,00 %
17.03.2023 14:58 17,0 C 17,2 C 12,2 C 57 % 1007,3 hPa 0,0 l/m 0 min 0 min 244 W/m 22,5 km/h (4 Bft) 100,00 %
17.03.2023 15:00 17,0 C 17,2 C 12,2 C 58 % 1007,4 hPa 0,0 l/m 0 min 0 min 244 W/m 16,1 km/h (3 Bft) 93,62 %
17.03.2023 15:02 17,0 C 17,2 C 12,2 C 58 % 1007,4 hPa 0,0 l/m 2 min 0 min 254 W/m 19,3 km/h (3 Bft) 95,74 %
17.03.2023 15:04 17,0 C 17,2 C 12,2 C 58 % 1007,3 hPa 0,0 l/m 2 min 0 min 277 W/m 12,9 km/h (3 Bft) 97,87 %
17.03.2023 15:06 17,0 C 17,2 C 12,2 C 58 % 1007,2 hPa 0,0 l/m 2 min 0 min 291 W/m 19,3 km/h (3 Bft) 93,62 %
17.03.2023 15:08 17,0 C 17,2 C 12,2 C 58 % 1007,2 hPa 0,0 l/m 2 min 0 min 287 W/m 16,1 km/h (3 Bft) 95,65 %
17.03.2023 15:10 17,0 C 17,2 C 12,2 C 58 % 1007,1 hPa 0,0 l/m 2 min 0 min 297 W/m 19,3 km/h (3 Bft) 95,74 %
17.03.2023 15:12 17,1 C 17,2 C 12,2 C 57 % 1007,2 hPa 0,0 l/m 2 min 0 min 309 W/m 19,3 km/h (3 Bft) 91,49 %
17.03.2023 15:14 17,1 C 17,8 C 12,2 C 58 % 1007,1 hPa 0,0 l/m 2 min 0 min 354 W/m 12,9 km/h (3 Bft) 95,74 %
17.03.2023 15:16 17,1 C 17,8 C 12,8 C 58 % 1007,1 hPa 0,0 l/m 2 min 0 min 352 W/m 16,1 km/h (3 Bft) 95,74 %
17.03.2023 15:18 17,1 C 17,8 C 12,8 C 57 % 1007,0 hPa 0,0 l/m 2 min 0 min 346 W/m 19,3 km/h (3 Bft) 95,74 %
17.03.2023 15:20 17,2 C 17,8 C 12,8 C 58 % 1007,0 hPa 0,0 l/m 2 min 0 min 283 W/m 16,1 km/h (3 Bft) 95,74 %
17.03.2023 15:22 17,2 C 17,8 C 12,8 C 58 % 1007,0 hPa 0,0 l/m 2 min 0 min 244 W/m 16,1 km/h (3 Bft) 95,65 %
17.03.2023 15:24 17,2 C 17,8 C 12,8 C 58 % 1007,0 hPa 0,0 l/m 2 min 0 min 231 W/m 16,1 km/h (3 Bft) 95,74 %
17.03.2023 15:26 17,2 C 17,2 C 12,2 C 58 % 1006,9 hPa 0,0 l/m 2 min 0 min 226 W/m 16,1 km/h (3 Bft) 93,62 %
17.03.2023 15:28 17,2 C 17,2 C 12,2 C 58 % 1007,0 hPa 0,0 l/m 2 min 0 min 272 W/m 19,3 km/h (3 Bft) 95,74 %
17.03.2023 15:30 17,2 C 17,2 C 12,2 C 58 % 1006,9 hPa 0,0 l/m 2 min 0 min 321 W/m 16,1 km/h (3 Bft) 93,62 %
17.03.2023 15:32 17,2 C 17,8 C 12,8 C 58 % 1006,9 hPa 0,0 l/m 2 min 0 min 320 W/m 19,3 km/h (3 Bft) 93,62 %
17.03.2023 15:34 17,3 C 17,8 C 12,8 C 58 % 1006,9 hPa 0,0 l/m 2 min 0 min 298 W/m 19,3 km/h (3 Bft) 95,65 %
17.03.2023 15:36 17,3 C 17,2 C 12,8 C 58 % 1006,8 hPa 0,0 l/m 2 min 0 min 275 W/m 19,3 km/h (3 Bft) 95,74 %
17.03.2023 15:38 17,3 C 17,8 C 12,8 C 58 % 1006,8 hPa 0,0 l/m 2 min 0 min 233 W/m 16,1 km/h (3 Bft) 95,74 %
17.03.2023 15:40 17,3 C 17,8 C 12,8 C 58 % 1006,8 hPa 0,0 l/m 2 min 0 min 247 W/m 19,3 km/h (3 Bft) 93,62 %
17.03.2023 15:42 17,3 C 17,8 C 12,8 C 58 % 1006,9 hPa 0,0 l/m 2 min 0 min 262 W/m 16,1 km/h (3 Bft) 97,87 %
17.03.2023 15:44 17,3 C 17,8 C 12,8 C 58 % 1006,9 hPa 0,0 l/m 2 min 0 min 340 W/m 19,3 km/h (3 Bft) 97,87 %
17.03.2023 15:46 17,3 C 18,3 C 12,8 C 59 % 1006,9 hPa 0,0 l/m 2 min 0 min 392 W/m 12,9 km/h (3 Bft) 100,00 %
17.03.2023 15:48 17,4 C 18,9 C 12,8 C 59 % 1006,9 hPa 0,0 l/m 2 min 0 min 434 W/m 19,3 km/h (3 Bft) 100,00 %
17.03.2023 15:50 17,4 C 18,9 C 12,8 C 59 % 1006,9 hPa 0,0 l/m 2 min 0 min 399 W/m 19,3 km/h (3 Bft) 95,65 %
17.03.2023 15:52 17,5 C 19,4 C 12,8 C 58 % 1006,9 hPa 0,0 l/m 2 min 0 min 349 W/m 22,5 km/h (4 Bft) 100,00 %
17.03.2023 15:54 17,6 C 18,9 C 12,8 C 58 % 1006,8 hPa 0,0 l/m 2 min 0 min 284 W/m 19,3 km/h (3 Bft) 100,00 %
17.03.2023 15:56 17,6 C 18,9 C 12,8 C 58 % 1006,8 hPa 0,0 l/m 2 min 0 min 260 W/m 19,3 km/h (3 Bft) 100,00 %
17.03.2023 15:58 17,7 C 18,3 C 12,8 C 58 % 1006,9 hPa 0,0 l/m 2 min 0 min 223 W/m 22,5 km/h (4 Bft) 100,00 %
17.03.2023 16:00 17,6 C 17,8 C 12,8 C 58 % 1006,9 hPa 0,0 l/m 2 min 0 min 205 W/m 25,7 km/h (4 Bft) 100,00 %
17.03.2023 16:02 17,6 C 17,2 C 12,8 C 58 % 1006,9 hPa 0,0 l/m 0 min 0 min 180 W/m 16,1 km/h (3 Bft) 97,83 %
17.03.2023 16:04 17,6 C 17,2 C 12,2 C 58 % 1006,8 hPa 0,0 l/m 0 min 0 min 185 W/m 12,9 km/h (3 Bft) 100,00 %
17.03.2023 16:06 17,6 C 17,2 C 12,2 C 59 % 1006,9 hPa 0,0 l/m 2 min 0 min 224 W/m 29,0 km/h (5 Bft) 100,00 %
17.03.2023 16:08 17,5 C 17,2 C 12,2 C 58 % 1006,9 hPa 0,0 l/m 0 min 0 min 182 W/m 25,7 km/h (4 Bft) 100,00 %
17.03.2023 16:10 17,4 C 16,7 C 12,2 C 58 % 1006,9 hPa 0,0 l/m 2 min 0 min 186 W/m 32,2 km/h (5 Bft) 100,00 %
17.03.2023 16:12 17,4 C 16,7 C 12,2 C 58 % 1006,8 hPa 0,0 l/m 2 min 0 min 194 W/m 16,1 km/h (3 Bft) 100,00 %
17.03.2023 16:14 17,3 C 16,7 C 12,2 C 58 % 1006,9 hPa 0,0 l/m 0 min 0 min 171 W/m 25,7 km/h (4 Bft) 100,00 %
17.03.2023 16:16 17,3 C 16,7 C 12,2 C 58 % 1006,9 hPa 0,0 l/m 0 min 0 min 161 W/m 19,3 km/h (3 Bft) 100,00 %
17.03.2023 16:18 17,3 C 16,7 C 12,2 C 58 % 1006,8 hPa 0,0 l/m 0 min 0 min 157 W/m 22,5 km/h (4 Bft) 100,00 %
17.03.2023 16:20 17,2 C 16,7 C 12,2 C 58 % 1006,8 hPa 0,0 l/m 0 min 0 min 155 W/m 22,5 km/h (4 Bft) 95,74 %
17.03.2023 16:22 17,1 C 16,7 C 12,2 C 59 % 1006,8 hPa 0,0 l/m 0 min 0 min 149 W/m 22,5 km/h (4 Bft) 100,00 %
17.03.2023 16:24 17,1 C 16,7 C 12,2 C 59 % 1006,7 hPa 0,0 l/m 0 min 0 min 148 W/m 19,3 km/h (3 Bft) 100,00 %
17.03.2023 16:26 17,1 C 16,7 C 12,2 C 60 % 1006,7 hPa 0,0 l/m 0 min 0 min 142 W/m 19,3 km/h (3 Bft) 100,00 %
17.03.2023 16:28 17,0 C 16,1 C 12,2 C 60 % 1006,7 hPa 0,0 l/m 0 min 0 min 129 W/m 19,3 km/h (3 Bft) 100,00 %
17.03.2023 16:30 16,9 C 16,1 C 11,7 C 59 % 1006,7 hPa 0,0 l/m 0 min 0 min 119 W/m 22,5 km/h (4 Bft) 100,00 %
17.03.2023 16:32 16,9 C 16,1 C 11,7 C 60 % 1006,6 hPa 0,0 l/m 0 min 0 min 122 W/m 19,3 km/h (3 Bft) 97,87 %
17.03.2023 16:34 16,9 C 16,1 C 11,7 C 60 % 1006,7 hPa 0,0 l/m 0 min 0 min 130 W/m 16,1 km/h (3 Bft) 100,00 %
17.03.2023 16:36 16,8 C 16,1 C 11,7 C 60 % 1006,7 hPa 0,0 l/m 0 min 0 min 130 W/m 25,7 km/h (4 Bft) 95,74 %
17.03.2023 16:38 16,8 C 16,1 C 11,7 C 60 % 1006,8 hPa 0,0 l/m 0 min 0 min 133 W/m 25,7 km/h (4 Bft) 95,74 %
17.03.2023 16:40 16,8 C 16,1 C 11,7 C 60 % 1006,8 hPa 0,0 l/m 0 min 0 min 140 W/m 25,7 km/h (4 Bft) 97,87 %
17.03.2023 16:42 16,8 C 16,1 C 11,7 C 60 % 1006,8 hPa 0,0 l/m 0 min 0 min 138 W/m 22,5 km/h (4 Bft) 95,74 %
17.03.2023 16:44 16,7 C 16,1 C 11,7 C 60 % 1006,8 hPa 0,0 l/m 0 min 0 min 135 W/m 19,3 km/h (3 Bft) 95,65 %
17.03.2023 16:46 16,7 C 16,1 C 11,7 C 60 % 1006,8 hPa 0,0 l/m 0 min 0 min 128 W/m 19,3 km/h (3 Bft) 91,49 %
17.03.2023 16:48 16,7 C 16,1 C 11,7 C 61 % 1006,7 hPa 0,0 l/m 0 min 0 min 121 W/m 12,9 km/h (3 Bft) 95,74 %
17.03.2023 16:50 16,7 C 16,1 C 11,7 C 61 % 1006,7 hPa 0,0 l/m 0 min 0 min 115 W/m 19,3 km/h (3 Bft) 82,98 %
17.03.2023 16:52 16,7 C 16,1 C 11,7 C 61 % 1006,7 hPa 0,0 l/m 0 min 0 min 113 W/m 19,3 km/h (3 Bft) 85,11 %
17.03.2023 16:54 16,6 C 16,1 C 11,7 C 61 % 1006,7 hPa 0,0 l/m 0 min 0 min 107 W/m 16,1 km/h (3 Bft) 93,62 %
17.03.2023 16:56 16,6 C 16,1 C 11,7 C 61 % 1006,7 hPa 0,0 l/m 0 min 0 min 101 W/m 19,3 km/h (3 Bft) 89,36 %
17.03.2023 16:58 16,6 C 15,6 C 11,7 C 61 % 1006,7 hPa 0,0 l/m 0 min 0 min 97 W/m 16,1 km/h (3 Bft) 97,83 %
17.03.2023 17:00 16,5 C 15,6 C 11,7 C 61 % 1006,6 hPa 0,0 l/m 0 min 0 min 94 W/m 22,5 km/h (4 Bft) 91,49 %
17.03.2023 17:02 16,4 C 15,6 C 11,7 C 61 % 1006,7 hPa 0,0 l/m 0 min 0 min 91 W/m 19,3 km/h (3 Bft) 82,98 %
17.03.2023 17:04 16,4 C 15,6 C 11,7 C 61 % 1006,7 hPa 0,0 l/m 0 min 0 min 87 W/m 35,4 km/h (5 Bft) 95,74 %
17.03.2023 17:06 16,4 C 15,6 C 11,1 C 62 % 1006,7 hPa 0,0 l/m 0 min 0 min 81 W/m 19,3 km/h (3 Bft) 97,87 %
17.03.2023 17:08 16,3 C 15,6 C 11,1 C 62 % 1006,7 hPa 0,0 l/m 0 min 0 min 76 W/m 16,1 km/h (3 Bft) 95,74 %
17.03.2023 17:10 16,3 C 15,6 C 11,1 C 62 % 1006,7 hPa 0,0 l/m 0 min 0 min 73 W/m 19,3 km/h (3 Bft) 89,36 %
17.03.2023 17:12 16,3 C 15,6 C 11,1 C 62 % 1006,7 hPa 0,0 l/m 0 min 0 min 70 W/m 16,1 km/h (3 Bft) 86,96 %
17.03.2023 17:14 16,2 C 15,6 C 11,1 C 62 % 1006,7 hPa 0,0 l/m 0 min 0 min 74 W/m 19,3 km/h (3 Bft) 85,11 %
17.03.2023 17:16 16,2 C 15,0 C 11,1 C 62 % 1006,8 hPa 0,0 l/m 0 min 0 min 76 W/m 25,7 km/h (4 Bft) 87,23 %
17.03.2023 17:18 16,1 C 15,0 C 11,1 C 62 % 1006,8 hPa 0,0 l/m 0 min 0 min 71 W/m 16,1 km/h (3 Bft) 93,62 %
17.03.2023 17:20 16,1 C 15,0 C 11,1 C 62 % 1006,7 hPa 0,0 l/m 0 min 0 min 69 W/m 22,5 km/h (4 Bft) 85,11 %
17.03.2023 17:22 16,1 C 15,0 C 11,1 C 63 % 1006,7 hPa 0,0 l/m 0 min 0 min 70 W/m 19,3 km/h (3 Bft) 87,23 %
17.03.2023 17:24 16,0 C 15,0 C 11,1 C 62 % 1006,7 hPa 0,0 l/m 0 min 0 min 70 W/m 29,0 km/h (5 Bft) 86,96 %
17.03.2023 17:26 16,0 C 15,0 C 11,1 C 63 % 1006,7 hPa 0,0 l/m 0 min 0 min 66 W/m 19,3 km/h (3 Bft) 80,85 %
17.03.2023 17:28 15,9 C 15,0 C 11,1 C 63 % 1006,7 hPa 0,0 l/m 0 min 0 min 62 W/m 25,7 km/h (4 Bft) 78,72 %
17.03.2023 17:30 15,9 C 15,0 C 11,1 C 62 % 1006,7 hPa 0,0 l/m 0 min 0 min 59 W/m 19,3 km/h (3 Bft) 70,21 %
17.03.2023 17:32 15,9 C 15,0 C 11,1 C 63 % 1006,7 hPa 0,0 l/m 0 min 0 min 52 W/m 19,3 km/h (3 Bft) 85,11 %
17.03.2023 17:34 15,8 C 15,0 C 11,1 C 63 % 1006,7 hPa 0,0 l/m 0 min 0 min 48 W/m 19,3 km/h (3 Bft) 80,85 %
17.03.2023 17:36 15,8 C 15,0 C 10,6 C 63 % 1006,8 hPa 0,0 l/m 0 min 0 min 42 W/m 19,3 km/h (3 Bft) 89,36 %
17.03.2023 17:38 15,8 C 14,4 C 10,6 C 63 % 1006,7 hPa 0,0 l/m 0 min 0 min 39 W/m 22,5 km/h (4 Bft) 76,09 %
17.03.2023 17:40 15,7 C 14,4 C 10,6 C 63 % 1006,8 hPa 0,0 l/m 0 min 0 min 34 W/m 22,5 km/h (4 Bft) 87,23 %
17.03.2023 17:42 15,7 C 14,4 C 10,6 C 63 % 1006,8 hPa 0,0 l/m 0 min 0 min 33 W/m 16,1 km/h (3 Bft) 85,11 %
17.03.2023 17:44 15,6 C 14,4 C 10,6 C 63 % 1006,9 hPa 0,0 l/m 0 min 0 min 32 W/m 29,0 km/h (5 Bft) 91,49 %
17.03.2023 17:46 15,6 C 14,4 C 10,6 C 64 % 1006,9 hPa 0,0 l/m 0 min 0 min 31 W/m 16,1 km/h (3 Bft) 87,23 %
17.03.2023 17:48 15,6 C 14,4 C 10,6 C 63 % 1007,0 hPa 0,0 l/m 0 min 0 min 28 W/m 22,5 km/h (4 Bft) 93,62 %
17.03.2023 17:50 15,5 C 14,4 C 10,6 C 63 % 1007,1 hPa 0,0 l/m 0 min 0 min 28 W/m 19,3 km/h (3 Bft) 89,13 %
17.03.2023 17:52 15,5 C 14,4 C 10,6 C 63 % 1007,1 hPa 0,0 l/m 0 min 0 min 28 W/m 19,3 km/h (3 Bft) 93,62 %
17.03.2023 17:54 15,4 C 14,4 C 10,6 C 63 % 1007,1 hPa 0,0 l/m 0 min 0 min 29 W/m 19,3 km/h (3 Bft) 91,49 %
17.03.2023 17:56 15,4 C 14,4 C 10,6 C 63 % 1007,1 hPa 0,0 l/m 0 min 0 min 30 W/m 16,1 km/h (3 Bft) 89,36 %
17.03.2023 17:58 15,4 C 14,4 C 10,6 C 63 % 1007,1 hPa 0,0 l/m 0 min 0 min 30 W/m 22,5 km/h (4 Bft) 93,62 %
17.03.2023 18:00 15,3 C 14,4 C 10,6 C 63 % 1007,2 hPa 0,0 l/m 0 min 0 min 29 W/m 19,3 km/h (3 Bft) 89,36 %
17.03.2023 18:02 15,3 C 14,4 C 10,6 C 62 % 1007,3 hPa 0,0 l/m 0 min 0 min 27 W/m 16,1 km/h (3 Bft) 93,62 %
17.03.2023 18:04 15,3 C 14,4 C 10,6 C 62 % 1007,3 hPa 0,0 l/m 0 min 0 min 26 W/m 19,3 km/h (3 Bft) 93,48 %
17.03.2023 18:07 15,2 C 13,9 C 10,0 C 63 % 1007,4 hPa 0,0 l/m 0 min 0 min 25 W/m 19,3 km/h (3 Bft) 94,12 %
17.03.2023 18:08 15,2 C 13,9 C 10,0 C 63 % 1007,4 hPa 0,0 l/m 0 min 0 min 23 W/m 9,7 km/h (2 Bft) 30,43 %
17.03.2023 18:12 15,1 C 13,9 C 10,0 C 63 % 1007,3 hPa 0,0 l/m 0 min 0 min 18 W/m 12,9 km/h (3 Bft) 90,57 %
17.03.2023 18:14 15,1 C 13,9 C 10,0 C 63 % 1007,3 hPa 0,0 l/m 0 min 0 min 15 W/m 16,1 km/h (3 Bft) 87,23 %
17.03.2023 18:16 15,0 C 13,9 C 10,0 C 63 % 1007,5 hPa 0,0 l/m 0 min 0 min 12 W/m 22,5 km/h (4 Bft) 87,23 %
17.03.2023 18:18 14,9 C 13,9 C 10,0 C 63 % 1007,5 hPa 0,0 l/m 0 min 0 min 10 W/m 22,5 km/h (4 Bft) 91,49 %
17.03.2023 18:20 14,9 C 13,9 C 10,0 C 63 % 1007,5 hPa 0,0 l/m 0 min 0 min 9 W/m 22,5 km/h (4 Bft) 91,49 %
17.03.2023 18:22 14,9 C 13,9 C 10,0 C 63 % 1007,4 hPa 0,0 l/m 0 min 0 min 8 W/m 16,1 km/h (3 Bft) 93,62 %
17.03.2023 18:24 14,8 C 13,9 C 10,0 C 63 % 1007,6 hPa 0,0 l/m 0 min 0 min 7 W/m 16,1 km/h (3 Bft) 97,83 %
17.03.2023 18:26 14,8 C 13,9 C 10,0 C 63 % 1007,6 hPa 0,0 l/m 0 min 0 min 6 W/m 19,3 km/h (3 Bft) 100,00 %
17.03.2023 18:28 14,8 C 13,9 C 10,0 C 63 % 1007,6 hPa 0,0 l/m 0 min 0 min 3 W/m 16,1 km/h (3 Bft) 97,87 %
17.03.2023 18:30 14,7 C 13,9 C 10,0 C 63 % 1007,6 hPa 0,0 l/m 0 min 0 min 0 W/m 19,3 km/h (3 Bft) 100,00 %
17.03.2023 18:32 14,7 C 13,9 C 10,0 C 63 % 1007,5 hPa 0,0 l/m 0 min 0 min 0 W/m 12,9 km/h (3 Bft) 93,62 %
17.03.2023 18:34 14,7 C 13,9 C 10,0 C 63 % 1007,4 hPa 0,0 l/m 0 min 0 min 0 W/m 16,1 km/h (3 Bft) 91,49 %
17.03.2023 18:36 14,7 C 13,9 C 9,4 C 63 % 1007,3 hPa 0,0 l/m 0 min 0 min 0 W/m 19,3 km/h (3 Bft) 100,00 %
17.03.2023 18:38 14,6 C 13,9 C 10,0 C 63 % 1007,3 hPa 0,0 l/m 0 min 0 min 0 W/m 19,3 km/h (3 Bft) 95,74 %
17.03.2023 18:40 14,6 C 13,9 C 10,0 C 63 % 1007,3 hPa 0,0 l/m 0 min 0 min 0 W/m 16,1 km/h (3 Bft) 97,87 %
17.03.2023 18:42 14,6 C 13,9 C 10,0 C 63 % 1007,3 hPa 0,0 l/m 0 min 0 min 0 W/m 16,1 km/h (3 Bft) 100,00 %
17.03.2023 18:44 14,6 C 13,9 C 10,0 C 63 % 1007,4 hPa 0,0 l/m 0 min 0 min 0 W/m 19,3 km/h (3 Bft) 100,00 %
17.03.2023 18:46 14,6 C 13,9 C 9,4 C 63 % 1007,4 hPa 0,0 l/m 0 min 0 min 0 W/m 19,3 km/h (3 Bft) 97,83 %
17.03.2023 18:48 14,5 C 13,9 C 9,4 C 63 % 1007,3 hPa 0,0 l/m 0 min 0 min 0 W/m 19,3 km/h (3 Bft) 97,87 %
17.03.2023 18:50 14,5 C 13,3 C 8,9 C 64 % 1007,3 hPa 0,0 l/m 0 min 0 min 0 W/m 12,9 km/h (3 Bft) 97,87 %
17.03.2023 18:52 14,4 C 13,3 C 8,9 C 64 % 1007,4 hPa 0,0 l/m 0 min 2 min 0 W/m 19,3 km/h (3 Bft) 95,74 %
17.03.2023 18:54 14,4 C 13,3 C 8,9 C 64 % 1007,3 hPa 0,0 l/m 0 min 0 min 0 W/m 16,1 km/h (3 Bft) 100,00 %
17.03.2023 18:56 14,4 C 13,3 C 8,9 C 64 % 1007,3 hPa 0,0 l/m 0 min 0 min 0 W/m 6,4 km/h (2 Bft) 100,00 %
17.03.2023 18:58 14,3 C 13,3 C 8,9 C 64 % 1007,4 hPa 0,0 l/m 0 min 0 min 0 W/m 16,1 km/h (3 Bft) 97,83 %
17.03.2023 19:00 14,3 C 13,3 C 9,4 C 64 % 1007,7 hPa 0,0 l/m 0 min 0 min 0 W/m 16,1 km/h (3 Bft) 97,87 %
17.03.2023 19:02 14,3 C 13,3 C 9,4 C 64 % 1008,0 hPa 0,0 l/m 0 min 0 min 0 W/m 16,1 km/h (3 Bft) 100,00 %
17.03.2023 19:04 14,3 C 13,3 C 9,4 C 65 % 1008,1 hPa 0,0 l/m 0 min 0 min 0 W/m 19,3 km/h (3 Bft) 95,74 %
17.03.2023 19:06 14,3 C 13,3 C 9,4 C 65 % 1008,1 hPa 0,0 l/m 0 min 0 min 0 W/m 22,5 km/h (4 Bft) 100,00 %
17.03.2023 19:08 14,3 C 13,3 C 9,4 C 65 % 1008,1 hPa 0,0 l/m 0 min 0 min 0 W/m 19,3 km/h (3 Bft) 100,00 %
17.03.2023 19:10 14,2 C 13,3 C 9,4 C 66 % 1008,1 hPa 0,0 l/m 0 min 0 min 0 W/m 22,5 km/h (4 Bft) 95,74 %
17.03.2023 19:12 14,2 C 13,3 C 9,4 C 66 % 1008,0 hPa 0,0 l/m 0 min 0 min 0 W/m 25,7 km/h (4 Bft) 97,87 %
17.03.2023 19:14 14,1 C 12,8 C 9,4 C 66 % 1008,0 hPa 0,0 l/m 0 min 0 min 0 W/m 19,3 km/h (3 Bft) 97,87 %
17.03.2023 19:16 14,1 C 12,8 C 9,4 C 66 % 1007,9 hPa 0,0 l/m 0 min 0 min 0 W/m 19,3 km/h (3 Bft) 95,74 %
17.03.2023 19:18 14,0 C 12,8 C 8,9 C 66 % 1007,9 hPa 0,0 l/m 0 min 0 min 0 W/m 12,9 km/h (3 Bft) 97,83 %
17.03.2023 19:20 14,0 C 12,8 C 8,9 C 66 % 1008,0 hPa 0,0 l/m 0 min 0 min 0 W/m 19,3 km/h (3 Bft) 97,87 %
17.03.2023 19:22 13,9 C 12,8 C 8,9 C 66 % 1008,0 hPa 0,0 l/m 0 min 0 min 0 W/m 16,1 km/h (3 Bft) 95,74 %
17.03.2023 19:24 13,9 C 12,8 C 8,9 C 67 % 1008,1 hPa 0,0 l/m 0 min 0 min 0 W/m 25,7 km/h (4 Bft) 97,87 %
17.03.2023 19:26 13,9 C 12,8 C 8,9 C 67 % 1008,1 hPa 0,0 l/m 0 min 0 min 0 W/m 12,9 km/h (3 Bft) 97,87 %
17.03.2023 19:28 13,9 C 12,8 C 8,9 C 67 % 1008,1 hPa 0,0 l/m 0 min 0 min 0 W/m 19,3 km/h (3 Bft) 95,83 %
17.03.2023 19:30 13,9 C 12,8 C 8,9 C 67 % 1008,0 hPa 0,0 l/m 0 min 0 min 0 W/m 16,1 km/h (3 Bft) 97,83 %
17.03.2023 19:32 13,8 C 12,8 C 8,9 C 67 % 1008,0 hPa 0,0 l/m 0 min 0 min 0 W/m 16,1 km/h (3 Bft) 91,67 %
17.03.2023 19:34 13,8 C 12,8 C 8,9 C 67 % 1008,0 hPa 0,0 l/m 0 min 0 min 0 W/m 12,9 km/h (3 Bft) 95,74 %
17.03.2023 19:36 13,8 C 12,8 C 8,9 C 67 % 1007,9 hPa 0,0 l/m 0 min 0 min 0 W/m 16,1 km/h (3 Bft) 97,87 %
17.03.2023 19:38 13,8 C 12,8 C 8,9 C 67 % 1007,9 hPa 0,0 l/m 0 min 0 min 0 W/m 12,9 km/h (3 Bft) 95,74 %
17.03.2023 19:40 13,7 C 12,8 C 8,9 C 67 % 1007,9 hPa 0,0 l/m 0 min 0 min 0 W/m 22,5 km/h (4 Bft) 95,74 %
17.03.2023 19:42 13,7 C 12,8 C 8,9 C 67 % 1008,0 hPa 0,0 l/m 0 min 0 min 0 W/m 19,3 km/h (3 Bft) 97,87 %
17.03.2023 19:44 13,7 C 12,8 C 8,9 C 68 % 1008,0 hPa 0,0 l/m 0 min 0 min 0 W/m 9,7 km/h (2 Bft) 97,87 %
17.03.2023 19:46 13,7 C 12,8 C 8,9 C 68 % 1008,1 hPa 0,0 l/m 0 min 0 min 0 W/m 16,1 km/h (3 Bft) 100,00 %
17.03.2023 19:48 13,7 C 12,8 C 8,9 C 68 % 1008,1 hPa 0,0 l/m 0 min 0 min 0 W/m 12,9 km/h (3 Bft) 97,30 %
17.03.2023 19:50 13,6 C 12,8 C 8,9 C 68 % 1008,1 hPa 0,0 l/m 0 min 0 min 0 W/m 12,9 km/h (3 Bft) 97,87 %
17.03.2023 19:52 13,6 C 12,8 C 8,9 C 68 % 1008,1 hPa 0,0 l/m 0 min 0 min 0 W/m 19,3 km/h (3 Bft) 97,87 %
17.03.2023 19:54 13,6 C 12,8 C 8,9 C 68 % 1008,1 hPa 0,0 l/m 0 min 0 min 0 W/m 16,1 km/h (3 Bft) 97,87 %
17.03.2023 19:56 13,6 C 12,8 C 8,9 C 68 % 1008,1 hPa 0,0 l/m 0 min 0 min 0 W/m 16,1 km/h (3 Bft) 97,87 %
17.03.2023 19:58 13,6 C 12,8 C 8,9 C 68 % 1008,0 hPa 0,0 l/m 0 min 0 min 0 W/m 12,9 km/h (3 Bft) 95,65 %
17.03.2023 20:00 13,5 C 12,8 C 8,9 C 68 % 1008,1 hPa 0,0 l/m 0 min 0 min 0 W/m 12,9 km/h (3 Bft) 97,87 %
17.03.2023 20:02 13,5 C 12,8 C 8,9 C 68 % 1008,1 hPa 0,0 l/m 0 min 0 min 0 W/m 19,3 km/h (3 Bft) 95,74 %
17.03.2023 20:04 13,4 C 12,8 C 8,9 C 68 % 1008,0 hPa 0,0 l/m 0 min 0 min 0 W/m 16,1 km/h (3 Bft) 95,74 %
17.03.2023 20:06 13,4 C 12,2 C 8,9 C 68 % 1008,0 hPa 0,0 l/m 0 min 0 min 0 W/m 16,1 km/h (3 Bft) 96,61 %
17.03.2023 20:08 13,4 C 12,2 C 8,9 C 69 % 1008,0 hPa 0,0 l/m 0 min 0 min 0 W/m 12,9 km/h (3 Bft) 100,00 %
17.03.2023 20:10 13,4 C 12,2 C 8,9 C 69 % 1008,1 hPa 0,0 l/m 0 min 0 min 0 W/m 19,3 km/h (3 Bft) 95,74 %
17.03.2023 20:12 13,4 C 12,2 C 8,9 C 69 % 1008,1 hPa 0,0 l/m 0 min 0 min 0 W/m 16,1 km/h (3 Bft) 97,83 %
17.03.2023 20:14 13,4 C 12,2 C 8,9 C 69 % 1008,0 hPa 0,0 l/m 0 min 0 min 0 W/m 9,7 km/h (2 Bft) 97,87 %
17.03.2023 20:16 13,3 C 12,2 C 8,9 C 69 % 1008,0 hPa 0,0 l/m 0 min 0 min 0 W/m 6,4 km/h (2 Bft) 97,87 %
17.03.2023 20:18 13,3 C 12,2 C 8,3 C 69 % 1008,1 hPa 0,0 l/m 0 min 0 min 0 W/m 16,1 km/h (3 Bft) 97,96 %
17.03.2023 20:20 13,3 C 12,2 C 8,3 C 69 % 1008,1 hPa 0,0 l/m 0 min 0 min 0 W/m 19,3 km/h (3 Bft) 97,87 %
17.03.2023 20:22 13,3 C 12,2 C 8,3 C 69 % 1008,1 hPa 0,0 l/m 0 min 0 min 0 W/m 12,9 km/h (3 Bft) 97,87 %
17.03.2023 20:24 13,3 C 12,2 C 8,3 C 69 % 1008,0 hPa 0,0 l/m 0 min 0 min 0 W/m 12,9 km/h (3 Bft) 91,49 %
17.03.2023 20:26 13,3 C 12,2 C 8,3 C 70 % 1008,0 hPa 0,0 l/m 0 min 0 min 0 W/m 12,9 km/h (3 Bft) 95,74 %
17.03.2023 20:28 13,2 C 12,2 C 8,3 C 70 % 1008,0 hPa 0,0 l/m 0 min 0 min 0 W/m 12,9 km/h (3 Bft) 95,74 %
17.03.2023 20:30 13,2 C 12,2 C 8,3 C 70 % 1008,0 hPa 0,0 l/m 0 min 0 min 0 W/m 12,9 km/h (3 Bft) 95,65 %
17.03.2023 20:32 13,2 C 12,2 C 8,3 C 70 % 1007,9 hPa 0,0 l/m 0 min 0 min 0 W/m 12,9 km/h (3 Bft) 95,74 %
17.03.2023 20:34 13,2 C 12,2 C 8,3 C 70 % 1007,9 hPa 0,0 l/m 0 min 0 min 0 W/m 12,9 km/h (3 Bft) 95,74 %
17.03.2023 20:36 13,1 C 12,2 C 8,3 C 70 % 1007,9 hPa 0,0 l/m 0 min 0 min 0 W/m 12,9 km/h (3 Bft) 97,87 %
17.03.2023 20:38 13,1 C 12,2 C 8,3 C 71 % 1008,0 hPa 0,0 l/m 0 min 0 min 0 W/m 6,4 km/h (2 Bft) 95,74 %
17.03.2023 20:40 13,1 C 12,2 C 8,3 C 71 % 1008,0 hPa 0,0 l/m 0 min 0 min 0 W/m 12,9 km/h (3 Bft) 97,87 %
17.03.2023 20:42 13,1 C 12,2 C 8,3 C 71 % 1008,0 hPa 0,0 l/m 0 min 0 min 0 W/m 6,4 km/h (2 Bft) 97,87 %
17.03.2023 20:44 13,1 C 12,2 C 8,3 C 71 % 1008,0 hPa 0,0 l/m 0 min 0 min 0 W/m 12,9 km/h (3 Bft) 97,83 %
17.03.2023 20:46 13,0 C 12,2 C 8,3 C 71 % 1008,0 hPa 0,0 l/m 0 min 0 min 0 W/m 6,4 km/h (2 Bft) 95,74 %
17.03.2023 20:48 13,0 C 12,2 C 8,3 C 72 % 1008,0 hPa 0,0 l/m 0 min 0 min 0 W/m 6,4 km/h (2 Bft) 97,87 %
17.03.2023 20:50 12,9 C 12,2 C 8,3 C 72 % 1008,0 hPa 0,0 l/m 0 min 0 min 0 W/m 9,7 km/h (2 Bft) 97,87 %
17.03.2023 20:52 12,9 C 11,7 C 8,3 C 72 % 1008,0 hPa 0,0 l/m 0 min 0 min 0 W/m 12,9 km/h (3 Bft) 95,74 %
17.03.2023 20:54 12,9 C 11,7 C 8,3 C 72 % 1008,1 hPa 0,0 l/m 0 min 0 min 0 W/m 12,9 km/h (3 Bft) 95,74 %
17.03.2023 20:56 12,9 C 11,7 C 8,3 C 72 % 1008,1 hPa 0,0 l/m 0 min 0 min 0 W/m 12,9 km/h (3 Bft) 97,83 %
17.03.2023 20:58 12,8 C 11,7 C 8,3 C 72 % 1008,1 hPa 0,0 l/m 0 min 0 min 0 W/m 12,9 km/h (3 Bft) 95,74 %
17.03.2023 21:00 12,8 C 11,7 C 8,3 C 72 % 1008,1 hPa 0,0 l/m 0 min 0 min 0 W/m 9,7 km/h (2 Bft) 95,74 %
17.03.2023 21:02 12,8 C 11,7 C 7,8 C 72 % 1008,2 hPa 0,0 l/m 0 min 0 min 0 W/m 6,4 km/h (2 Bft) 97,87 %
17.03.2023 21:04 12,8 C 11,7 C 7,8 C 72 % 1008,2 hPa 0,0 l/m 0 min 0 min 0 W/m 6,4 km/h (2 Bft) 44,44 %
17.03.2023 21:06 12,8 C 11,7 C 7,8 C 72 % 1008,3 hPa 0,0 l/m 0 min 0 min 0 W/m 16,1 km/h (3 Bft) 93,62 %
17.03.2023 21:08 12,8 C 11,7 C 7,8 C 72 % 1008,2 hPa 0,0 l/m 0 min 0 min 0 W/m 12,9 km/h (3 Bft) 95,74 %
17.03.2023 21:10 12,8 C 11,7 C 7,8 C 73 % 1008,2 hPa 0,0 l/m 0 min 0 min 0 W/m 9,7 km/h (2 Bft) 95,65 %
17.03.2023 21:12 12,7 C 11,7 C 7,8 C 73 % 1008,2 hPa 0,0 l/m 0 min 0 min 0 W/m 12,9 km/h (3 Bft) 93,62 %
17.03.2023 21:14 12,7 C 11,7 C 7,8 C 73 % 1008,2 hPa 0,0 l/m 0 min 0 min 0 W/m 16,1 km/h (3 Bft) 97,87 %
17.03.2023 21:16 12,7 C 11,7 C 7,8 C 73 % 1008,2 hPa 0,0 l/m 0 min 0 min 0 W/m 12,9 km/h (3 Bft) 97,87 %
17.03.2023 21:18 12,7 C 11,7 C 7,8 C 73 % 1008,2 hPa 0,0 l/m 0 min 0 min 0 W/m 9,7 km/h (2 Bft) 97,87 %
17.03.2023 21:20 12,7 C 11,7 C 7,8 C 73 % 1008,3 hPa 0,0 l/m 0 min 0 min 0 W/m 12,9 km/h (3 Bft) 97,87 %
17.03.2023 21:22 12,7 C 11,7 C 7,8 C 73 % 1008,3 hPa 0,0 l/m 0 min 0 min 0 W/m 9,7 km/h (2 Bft) 95,65 %
17.03.2023 21:24 12,7 C 11,7 C 7,8 C 73 % 1008,3 hPa 0,0 l/m 0 min 0 min 0 W/m 12,9 km/h (3 Bft) 97,87 %
17.03.2023 21:26 12,6 C 11,7 C 7,8 C 73 % 1008,3 hPa 0,0 l/m 0 min 0 min 0 W/m 12,9 km/h (3 Bft) 95,74 %
17.03.2023 21:28 12,6 C 11,7 C 7,8 C 73 % 1008,3 hPa 0,0 l/m 0 min 0 min 0 W/m 12,9 km/h (3 Bft) 97,14 %
17.03.2023 21:30 12,6 C 11,7 C 7,8 C 73 % 1008,3 hPa 0,0 l/m 0 min 0 min 0 W/m 6,4 km/h (2 Bft) 97,87 %
17.03.2023 21:32 12,6 C 11,7 C 7,8 C 73 % 1008,4 hPa 0,0 l/m 0 min 0 min 0 W/m 16,1 km/h (3 Bft) 96,30 %
17.03.2023 21:34 12,6 C 11,7 C 7,8 C 73 % 1008,4 hPa 0,0 l/m 0 min 0 min 0 W/m 12,9 km/h (3 Bft) 100,00 %
17.03.2023 21:36 12,6 C 11,7 C 7,8 C 73 % 1008,4 hPa 0,0 l/m 0 min 0 min 0 W/m 12,9 km/h (3 Bft) 95,74 %
17.03.2023 21:38 12,6 C 11,7 C 7,8 C 73 % 1008,4 hPa 0,0 l/m 0 min 0 min 0 W/m 6,4 km/h (2 Bft) 97,87 %
17.03.2023 21:40 12,6 C 11,7 C 7,8 C 73 % 1008,4 hPa 0,0 l/m 0 min 0 min 0 W/m 9,7 km/h (2 Bft) 100,00 %
17.03.2023 21:42 12,6 C 11,7 C 7,8 C 73 % 1008,4 hPa 0,0 l/m 0 min 0 min 0 W/m 6,4 km/h (2 Bft) 100,00 %
17.03.2023 21:44 12,6 C 11,7 C 7,8 C 73 % 1008,4 hPa 0,0 l/m 0 min 0 min 0 W/m 9,7 km/h (2 Bft) 100,00 %
17.03.2023 21:46 12,6 C 11,7 C 7,8 C 73 % 1008,4 hPa 0,0 l/m 0 min 0 min 0 W/m 6,4 km/h (2 Bft) 100,00 %
17.03.2023 21:48 12,6 C 11,7 C 7,8 C 73 % 1008,3 hPa 0,0 l/m 0 min 0 min 0 W/m 6,4 km/h (2 Bft) 100,00 %
17.03.2023 21:50 12,6 C 11,7 C 7,8 C 73 % 1008,4 hPa 0,0 l/m 0 min 0 min 0 W/m 9,7 km/h (2 Bft) 97,87 %
17.03.2023 21:52 12,6 C 11,7 C 7,8 C 73 % 1008,4 hPa 0,0 l/m 0 min 0 min 0 W/m 6,4 km/h (2 Bft) 100,00 %
17.03.2023 21:54 12,6 C 11,7 C 7,8 C 74 % 1008,4 hPa 0,0 l/m 0 min 0 min 0 W/m 9,7 km/h (2 Bft) 100,00 %
17.03.2023 21:56 12,6 C 11,7 C 7,8 C 74 % 1008,4 hPa 0,0 l/m 0 min 0 min 0 W/m 12,9 km/h (3 Bft) 100,00 %
17.03.2023 21:58 12,6 C 11,7 C 7,8 C 74 % 1008,4 hPa 0,0 l/m 0 min 0 min 0 W/m 16,1 km/h (3 Bft) 100,00 %
17.03.2023 22:00 12,6 C 11,7 C 7,8 C 74 % 1008,5 hPa 0,0 l/m 0 min 0 min 0 W/m 6,4 km/h (2 Bft) 100,00 %
17.03.2023 22:02 12,6 C 11,7 C 7,8 C 74 % 1008,5 hPa 0,0 l/m 0 min 0 min 0 W/m 6,4 km/h (2 Bft) 97,87 %
17.03.2023 22:04 12,6 C 11,7 C 7,8 C 74 % 1008,5 hPa 0,0 l/m 0 min 0 min 0 W/m 12,9 km/h (3 Bft) 100,00 %
17.03.2023 22:06 12,6 C 11,7 C 7,8 C 74 % 1008,5 hPa 0,0 l/m 0 min 0 min 0 W/m 9,7 km/h (2 Bft) 100,00 %
17.03.2023 22:08 12,6 C 11,7 C 7,8 C 74 % 1008,5 hPa 0,0 l/m 0 min 0 min 0 W/m 12,9 km/h (3 Bft) 100,00 %
17.03.2023 22:10 12,6 C 11,7 C 7,8 C 74 % 1008,5 hPa 0,0 l/m 0 min 0 min 0 W/m 12,9 km/h (3 Bft) 97,87 %
17.03.2023 22:12 12,6 C 11,7 C 7,8 C 74 % 1008,5 hPa 0,0 l/m 0 min 0 min 0 W/m 6,4 km/h (2 Bft) 100,00 %
17.03.2023 22:14 12,6 C 11,7 C 7,8 C 74 % 1008,5 hPa 0,0 l/m 0 min 0 min 0 W/m 3,2 km/h (1 Bft) 100,00 %
17.03.2023 22:16 12,6 C 11,7 C 7,8 C 74 % 1008,5 hPa 0,0 l/m 0 min 0 min 0 W/m 3,2 km/h (1 Bft) 100,00 %
17.03.2023 22:18 12,6 C 11,7 C 7,8 C 74 % 1008,5 hPa 0,0 l/m 0 min 0 min 0 W/m 6,4 km/h (2 Bft) 97,87 %
17.03.2023 22:20 12,6 C 12,2 C 7,8 C 74 % 1008,5 hPa 0,0 l/m 0 min 0 min 0 W/m 6,4 km/h (2 Bft) 100,00 %
17.03.2023 22:22 12,6 C 12,2 C 7,8 C 74 % 1008,5 hPa 0,0 l/m 0 min 0 min 0 W/m 6,4 km/h (2 Bft) 100,00 %
17.03.2023 22:24 12,6 C 12,2 C 7,8 C 74 % 1008,5 hPa 0,0 l/m 0 min 0 min 0 W/m 12,9 km/h (3 Bft) 100,00 %
17.03.2023 22:26 12,6 C 12,2 C 7,8 C 74 % 1008,5 hPa 0,0 l/m 0 min 0 min 0 W/m 12,9 km/h (3 Bft) 97,87 %
17.03.2023 22:28 12,6 C 12,2 C 7,8 C 74 % 1008,5 hPa 0,0 l/m 0 min 0 min 0 W/m 6,4 km/h (2 Bft) 100,00 %
17.03.2023 22:30 12,6 C 12,2 C 7,8 C 74 % 1008,5 hPa 0,0 l/m 0 min 0 min 0 W/m 6,4 km/h (2 Bft) 100,00 %
17.03.2023 22:32 12,6 C 12,2 C 7,8 C 74 % 1008,5 hPa 0,0 l/m 0 min 0 min 0 W/m 6,4 km/h (2 Bft) 93,62 %
17.03.2023 22:34 12,6 C 12,2 C 7,8 C 74 % 1008,4 hPa 0,0 l/m 0 min 0 min 0 W/m 12,9 km/h (3 Bft) 97,87 %
17.03.2023 22:36 12,6 C 12,2 C 7,8 C 74 % 1008,4 hPa 0,0 l/m 0 min 0 min 0 W/m 6,4 km/h (2 Bft) 97,87 %
17.03.2023 22:38 12,6 C 12,2 C 8,3 C 74 % 1008,4 hPa 0,0 l/m 0 min 0 min 0 W/m 12,9 km/h (3 Bft) 97,87 %
17.03.2023 22:40 12,7 C 12,2 C 8,3 C 74 % 1008,3 hPa 0,0 l/m 0 min 0 min 0 W/m 6,4 km/h (2 Bft) 97,87 %
17.03.2023 22:42 12,7 C 12,2 C 8,3 C 74 % 1008,4 hPa 0,0 l/m 0 min 0 min 0 W/m 6,4 km/h (2 Bft) 95,12 %
17.03.2023 22:44 12,7 C 12,2 C 8,3 C 74 % 1008,4 hPa 0,0 l/m 0 min 0 min 0 W/m 6,4 km/h (2 Bft) 97,87 %
17.03.2023 22:46 12,7 C 12,2 C 7,8 C 75 % 1008,3 hPa 0,0 l/m 0 min 0 min 0 W/m 6,4 km/h (2 Bft) 97,87 %
17.03.2023 22:48 12,7 C 12,2 C 7,8 C 75 % 1008,4 hPa 0,0 l/m 0 min 0 min 0 W/m 6,4 km/h (2 Bft) 97,87 %
17.03.2023 22:50 12,7 C 11,7 C 7,8 C 75 % 1008,4 hPa 0,0 l/m 0 min 0 min 0 W/m 6,4 km/h (2 Bft) 95,74 %
17.03.2023 22:52 12,7 C 11,7 C 7,8 C 75 % 1008,5 hPa 0,0 l/m 0 min 0 min 0 W/m 6,4 km/h (2 Bft) 97,87 %
17.03.2023 22:54 12,7 C 11,7 C 7,8 C 75 % 1008,4 hPa 0,0 l/m 0 min 0 min 0 W/m 6,4 km/h (2 Bft) 95,92 %
17.03.2023 22:56 12,7 C 11,7 C 7,8 C 75 % 1008,4 hPa 0,0 l/m 0 min 0 min 0 W/m 6,4 km/h (2 Bft) 95,74 %
17.03.2023 22:58 12,7 C 11,7 C 7,8 C 75 % 1008,4 hPa 0,0 l/m 0 min 0 min 0 W/m 6,4 km/h (2 Bft) 93,75 %
17.03.2023 23:00 12,7 C 11,7 C 7,8 C 75 % 1008,4 hPa 0,0 l/m 0 min 0 min 0 W/m 6,4 km/h (2 Bft) 95,74 %
17.03.2023 23:02 12,7 C 11,7 C 7,8 C 75 % 1008,4 hPa 0,0 l/m 0 min 0 min 0 W/m 12,9 km/h (3 Bft) 93,62 %
17.03.2023 23:04 12,6 C 11,7 C 7,8 C 75 % 1008,4 hPa 0,0 l/m 0 min 0 min 0 W/m 12,9 km/h (3 Bft) 95,74 %
17.03.2023 23:06 12,6 C 11,7 C 7,8 C 75 % 1008,4 hPa 0,0 l/m 0 min 0 min 0 W/m 12,9 km/h (3 Bft) 95,65 %
17.03.2023 23:08 12,6 C 11,7 C 7,8 C 75 % 1008,4 hPa 0,0 l/m 0 min 0 min 0 W/m 6,4 km/h (2 Bft) 95,74 %
17.03.2023 23:10 12,6 C 11,7 C 7,8 C 76 % 1008,4 hPa 0,0 l/m 0 min 0 min 0 W/m 9,7 km/h (2 Bft) 95,74 %
17.03.2023 23:12 12,6 C 11,7 C 7,8 C 76 % 1008,4 hPa 0,0 l/m 0 min 0 min 0 W/m 12,9 km/h (3 Bft) 97,87 %
17.03.2023 23:14 12,6 C 11,7 C 7,8 C 76 % 1008,4 hPa 0,0 l/m 0 min 0 min 0 W/m 6,4 km/h (2 Bft) 95,74 %
17.03.2023 23:16 12,6 C 11,7 C 7,8 C 76 % 1008,5 hPa 0,0 l/m 0 min 0 min 0 W/m 6,4 km/h (2 Bft) 93,62 %
17.03.2023 23:18 12,6 C 11,7 C 7,8 C 76 % 1008,5 hPa 0,0 l/m 0 min 0 min 0 W/m 6,4 km/h (2 Bft) 97,87 %
17.03.2023 23:20 12,6 C 11,7 C 7,8 C 76 % 1008,5 hPa 0,0 l/m 0 min 0 min 0 W/m 12,9 km/h (3 Bft) 97,83 %
17.03.2023 23:22 12,5 C 11,7 C 7,8 C 76 % 1008,6 hPa 0,0 l/m 0 min 0 min 0 W/m 6,4 km/h (2 Bft) 93,62 %
17.03.2023 23:24 12,5 C 11,7 C 7,8 C 76 % 1008,6 hPa 0,0 l/m 0 min 0 min 0 W/m 6,4 km/h (2 Bft) 93,62 %
17.03.2023 23:26 12,5 C 11,7 C 7,8 C 76 % 1008,6 hPa 0,0 l/m 0 min 0 min 0 W/m 3,2 km/h (1 Bft) 91,49 %
17.03.2023 23:28 12,5 C 11,7 C 7,8 C 76 % 1008,6 hPa 0,0 l/m 0 min 2 min 0 W/m 12,9 km/h (3 Bft) 97,87 %
17.03.2023 23:30 12,5 C 11,7 C 7,8 C 76 % 1008,7 hPa 0,0 l/m 0 min 0 min 0 W/m 12,9 km/h (3 Bft) 95,74 %
17.03.2023 23:32 12,5 C 11,7 C 7,8 C 76 % 1008,7 hPa 0,0 l/m 0 min 0 min 0 W/m 12,9 km/h (3 Bft) 97,87 %
17.03.2023 23:34 12,4 C 11,7 C 7,2 C 76 % 1008,7 hPa 0,0 l/m 0 min 0 min 0 W/m 6,4 km/h (2 Bft) 97,83 %
17.03.2023 23:36 12,4 C 11,7 C 7,2 C 77 % 1008,7 hPa 0,0 l/m 0 min 0 min 0 W/m 12,9 km/h (3 Bft) 97,87 %
17.03.2023 23:38 12,4 C 11,7 C 7,8 C 77 % 1008,7 hPa 0,0 l/m 0 min 0 min 0 W/m 6,4 km/h (2 Bft) 100,00 %
17.03.2023 23:40 12,4 C 11,7 C 7,8 C 77 % 1008,7 hPa 0,0 l/m 0 min 0 min 0 W/m 6,4 km/h (2 Bft) 95,74 %
17.03.2023 23:42 12,4 C 11,7 C 7,8 C 77 % 1008,8 hPa 0,0 l/m 0 min 0 min 0 W/m 9,7 km/h (2 Bft) 97,87 %
17.03.2023 23:44 12,4 C 11,7 C 7,8 C 77 % 1008,8 hPa 0,0 l/m 0 min 0 min 0 W/m 12,9 km/h (3 Bft) 95,74 %
17.03.2023 23:46 12,4 C 11,7 C 7,8 C 77 % 1008,8 hPa 0,0 l/m 0 min 0 min 0 W/m 3,2 km/h (1 Bft) 97,87 %
17.03.2023 23:48 12,4 C 11,7 C 7,8 C 78 % 1008,9 hPa 0,0 l/m 0 min 0 min 0 W/m 6,4 km/h (2 Bft) 93,62 %
17.03.2023 23:50 12,4 C 11,7 C 7,8 C 78 % 1008,9 hPa 0,0 l/m 0 min 0 min 0 W/m 6,4 km/h (2 Bft) 97,87 %
17.03.2023 23:52 12,4 C 11,7 C 7,8 C 78 % 1008,8 hPa 0,0 l/m 0 min 2 min 0 W/m 12,9 km/h (3 Bft) 97,87 %
17.03.2023 23:54 12,4 C 11,7 C 7,2 C 78 % 1008,9 hPa 0,0 l/m 0 min 0 min 0 W/m 6,4 km/h (2 Bft) 97,87 %
17.03.2023 23:56 12,3 C 11,1 C 7,2 C 78 % 1008,9 hPa 0,0 l/m 0 min 0 min 0 W/m 6,4 km/h (2 Bft) 95,74 %
17.03.2023 23:58 12,3 C 11,1 C 7,2 C 78 % 1009,0 hPa 0,0 l/m 0 min 0 min 0 W/m 6,4 km/h (2 Bft) 95,74 %
_ Min-Zeit 07:02 06:42 03:46 13:36 16:32 - - - - 22:14 18:08
Minimum _ 7,1 C 6,1 C 2,8 C 57 % 1006,6 hPa - - - - 3,2 km/h (1 Bft) 30,43 %
_ Max-Zeit 15:58 11:28 11:28 23:48 01:04 00:00 12:12 18:52 11:26 02:20 00:00
Maximum _ 17,7 C 20,0 C 13,9 C 78 % 1010,5 hPa 0,0 l/m 4 min 2 min 610 W/m 38,6 km/h
S-SO (5 Bft)
100,00 %
Durchschnitt _ 11,9 C 11,8 C 7,5 C 68 % 1008,4 hPa #0,0 l/m #6:16 h #6 min. 237 W/m 17,3 km/h (3 Bft) 96,57 %
© 2023 W. Hausmann